Time,TemperatureF,DewpointF,PressureIn,WindDirection,WindDirectionDegrees,WindSpeedMPH,WindSpeedGustMPH,Humidity,HourlyPrecipIn,Conditions,Clouds,dailyrainin,SolarRadiationWatts/m^2,SoftwareType,DateUTC
2013-03-03 00:02:00,39.1,36.7,30.19,WSW,239,0.0,-999.0,91,0.00,,,0.00,0,Wunderground v.1.15,2013-03-03 08:02:00,
2013-03-03 00:03:00,39.1,36.7,30.19,WSW,251,5.0,-999.0,91,0.00,,,0.00,0,Wunderground v.1.15,2013-03-03 08:03:00,
2013-03-03 00:04:00,39.2,36.8,30.19,West,262,0.0,-999.0,91,0.00,,,0.00,0,Wunderground v.1.15,2013-03-03 08:04:00,
2013-03-03 00:08:00,39.2,36.8,30.19,West,279,1.0,-999.0,91,0.00,,,0.00,0,Wunderground v.1.15,2013-03-03 08:08:00,
2013-03-03 00:11:00,39.4,37.0,30.19,WSW,251,1.0,-999.0,91,0.00,,,0.00,0,Wunderground v.1.15,2013-03-03 08:11:00,
2013-03-03 00:12:00,39.4,37.0,30.19,WSW,239,2.0,-999.0,91,0.00,,,0.00,0,Wunderground v.1.15,2013-03-03 08:12:00,
2013-03-03 00:16:00,39.5,36.8,30.20,NW,304,2.0,-999.0,90,0.00,,,0.00,0,Wunderground v.1.15,2013-03-03 08:16:00,
2013-03-03 00:18:00,39.7,36.7,30.20,NNE,21,0.0,-999.0,89,0.00,,,0.00,0,Wunderground v.1.15,2013-03-03 08:18:00,
2013-03-03 00:19:00,39.7,36.7,30.20,NW,306,1.0,-999.0,89,0.00,,,0.00,0,Wunderground v.1.15,2013-03-03 08:19:00,
2013-03-03 00:23:00,39.8,36.5,30.20,WSW,252,0.0,-999.0,88,0.00,,,0.00,0,Wunderground v.1.15,2013-03-03 08:23:00,
2013-03-03 00:24:00,39.8,36.5,30.20,WSW,252,0.0,-999.0,88,0.00,,,0.00,0,Wunderground v.1.15,2013-03-03 08:24:00,
2013-03-03 00:28:00,39.9,36.9,30.20,West,272,0.0,-999.0,89,0.00,,,0.00,0,Wunderground v.1.15,2013-03-03 08:28:00,
2013-03-03 00:29:00,39.9,36.9,30.20,West,268,0.0,-999.0,89,0.00,,,0.00,0,Wunderground v.1.15,2013-03-03 08:29:00,
2013-03-03 00:30:00,39.9,36.9,30.20,NW,310,6.0,-999.0,89,0.00,,,0.00,0,Wunderground v.1.15,2013-03-03 08:30:00,
2013-03-03 00:32:00,39.9,36.9,30.16,West,268,1.0,-999.0,89,0.00,,,0.00,0,Wunderground v.1.15,2013-03-03 08:32:00,
2013-03-03 00:35:00,39.9,36.9,30.16,North,354,0.0,-999.0,89,0.00,,,0.00,0,Wunderground v.1.15,2013-03-03 08:35:00,
2013-03-03 00:37:00,39.9,36.9,30.16,West,259,0.0,-999.0,89,0.00,,,0.00,0,Wunderground v.1.15,2013-03-03 08:37:00,
2013-03-03 00:38:00,39.9,36.9,30.16,West,259,0.0,-999.0,89,0.00,,,0.00,0,Wunderground v.1.15,2013-03-03 08:38:00,
2013-03-03 00:41:00,39.9,36.9,30.16,WNW,282,1.0,-999.0,89,0.00,,,0.00,0,Wunderground v.1.15,2013-03-03 08:41:00,
2013-03-03 00:43:00,39.9,36.6,30.16,WSW,251,0.0,-999.0,88,0.00,,,0.00,0,Wunderground v.1.15,2013-03-03 08:43:00,
2013-03-03 00:45:00,39.9,36.6,30.16,WSW,244,0.0,-999.0,88,0.00,,,0.00,0,Wunderground v.1.15,2013-03-03 08:45:00,
2013-03-03 00:47:00,39.8,36.5,30.20,SW,215,0.0,-999.0,88,0.00,,,0.00,0,Wunderground v.1.15,2013-03-03 08:47:00,
2013-03-03 00:50:00,39.9,36.6,30.20,SW,229,5.0,-999.0,88,0.00,,,0.00,0,Wunderground v.1.15,2013-03-03 08:50:00,
2013-03-03 00:54:00,39.9,36.1,30.20,North,357,1.0,-999.0,86,0.00,,,0.00,0,Wunderground v.1.15,2013-03-03 08:54:00,
2013-03-03 00:55:00,39.9,36.3,30.20,SSW,193,5.0,-999.0,87,0.00,,,0.00,0,Wunderground v.1.15,2013-03-03 08:55:00,
2013-03-03 00:57:00,40.1,36.5,30.20,SW,217,0.0,-999.0,87,0.00,,,0.00,0,Wunderground v.1.15,2013-03-03 08:57:00,
2013-03-03 01:00:00,40.1,36.2,30.20,North,4,2.0,-999.0,86,0.00,,,0.00,0,Wunderground v.1.15,2013-03-03 09:00:00,
2013-03-03 01:01:00,40.1,36.2,30.20,North,4,0.0,-999.0,86,0.00,,,0.00,0,Wunderground v.1.15,2013-03-03 09:01:00,
2013-03-03 01:03:00,40.2,36.6,30.20,North,2,0.0,-999.0,87,0.00,,,0.00,0,Wunderground v.1.15,2013-03-03 09:03:00,
2013-03-03 01:06:00,40.2,36.6,30.20,West,277,0.0,-999.0,87,0.00,,,0.00,0,Wunderground v.1.15,2013-03-03 09:06:00,
2013-03-03 01:10:00,40.2,36.3,30.20,SW,225,1.0,-999.0,86,0.00,,,0.00,0,Wunderground v.1.15,2013-03-03 09:10:00,
2013-03-03 01:13:00,40.4,36.2,30.20,WSW,244,0.0,-999.0,85,0.00,,,0.00,0,Wunderground v.1.15,2013-03-03 09:13:00,
2013-03-03 01:14:00,40.4,36.2,30.20,West,268,1.0,-999.0,85,0.00,,,0.00,0,Wunderground v.1.15,2013-03-03 09:14:00,
2013-03-03 01:16:00,40.4,35.9,30.21,WSW,249,3.0,-999.0,84,0.00,,,0.00,0,Wunderground v.1.15,2013-03-03 09:16:00,
2013-03-03 01:18:00,40.4,35.9,30.21,NNW,327,0.0,-999.0,84,0.00,,,0.00,0,Wunderground v.1.15,2013-03-03 09:18:00,
2013-03-03 01:19:00,40.4,35.9,30.21,NNW,327,0.0,-999.0,84,0.00,,,0.00,0,Wunderground v.1.15,2013-03-03 09:19:00,
2013-03-03 01:20:00,40.4,35.9,30.21,NW,325,0.0,-999.0,84,0.00,,,0.00,0,Wunderground v.1.15,2013-03-03 09:20:00,
2013-03-03 01:21:00,40.4,35.9,30.21,West,263,2.0,-999.0,84,0.00,,,0.00,0,Wunderground v.1.15,2013-03-03 09:21:00,
2013-03-03 01:25:00,40.4,35.9,30.21,West,266,6.0,-999.0,84,0.00,,,0.00,0,Wunderground v.1.15,2013-03-03 09:25:00,
2013-03-03 01:26:00,40.4,35.9,30.21,West,266,0.0,-999.0,84,0.00,,,0.00,0,Wunderground v.1.15,2013-03-03 09:26:00,
2013-03-03 01:29:00,40.4,35.9,30.21,West,265,0.0,-999.0,84,0.00,,,0.00,0,Wunderground v.1.15,2013-03-03 09:29:00,
2013-03-03 01:30:00,40.4,35.9,30.21,West,265,0.0,-999.0,84,0.00,,,0.00,0,Wunderground v.1.15,2013-03-03 09:30:00,
2013-03-03 01:32:00,40.4,36.2,30.21,West,261,0.0,-999.0,85,0.00,,,0.00,0,Wunderground v.1.15,2013-03-03 09:32:00,
2013-03-03 01:36:00,40.4,36.2,30.21,WSW,238,0.0,-999.0,85,0.00,,,0.00,0,Wunderground v.1.15,2013-03-03 09:36:00,
2013-03-03 01:39:00,40.2,36.1,30.21,SW,231,0.0,-999.0,85,0.00,,,0.00,0,Wunderground v.1.15,2013-03-03 09:39:00,
2013-03-03 01:40:00,40.2,35.8,30.21,SW,231,0.0,-999.0,84,0.00,,,0.00,0,Wunderground v.1.15,2013-03-03 09:40:00,
2013-03-03 01:41:00,40.2,35.8,30.21,SW,231,0.0,-999.0,84,0.00,,,0.00,0,Wunderground v.1.15,2013-03-03 09:41:00,
2013-03-03 01:45:00,40.2,35.8,30.21,South,176,2.0,-999.0,84,0.00,,,0.00,0,Wunderground v.1.15,2013-03-03 09:45:00,
2013-03-03 01:46:00,40.4,36.2,30.22,South,176,0.0,-999.0,85,0.00,,,0.00,0,Wunderground v.1.15,2013-03-03 09:46:00,
2013-03-03 01:47:00,40.4,36.2,30.22,South,174,0.0,-999.0,85,0.00,,,0.00,0,Wunderground v.1.15,2013-03-03 09:47:00,
2013-03-03 01:53:00,40.4,36.5,30.22,WSW,248,0.0,-999.0,86,0.00,,,0.00,0,Wunderground v.1.15,2013-03-03 09:53:00,
2013-03-03 01:54:00,40.4,36.5,30.22,WSW,248,0.0,-999.0,86,0.00,,,0.00,0,Wunderground v.1.15,2013-03-03 09:54:00,
2013-03-03 01:58:00,40.2,36.3,30.22,SSW,197,0.0,-999.0,86,0.00,,,0.00,0,Wunderground v.1.15,2013-03-03 09:58:00,
2013-03-03 02:00:00,40.2,36.3,30.22,SSW,197,0.0,-999.0,86,0.00,,,0.00,0,Wunderground v.1.15,2013-03-03 10:00:00,
2013-03-03 02:03:00,40.2,36.3,30.22,West,280,0.0,-999.0,86,0.00,,,0.00,0,Wunderground v.1.15,2013-03-03 10:03:00,
2013-03-03 02:05:00,40.2,36.3,30.22,West,266,2.0,-999.0,86,0.00,,,0.00,0,Wunderground v.1.15,2013-03-03 10:05:00,
2013-03-03 02:08:00,40.2,36.3,30.22,WNW,282,0.0,-999.0,86,0.00,,,0.00,0,Wunderground v.1.15,2013-03-03 10:08:00,
2013-03-03 02:10:00,40.2,36.3,30.22,WNW,286,0.0,-999.0,86,0.00,,,0.00,0,Wunderground v.1.15,2013-03-03 10:10:00,
2013-03-03 02:13:00,40.4,36.2,30.22,West,273,0.0,-999.0,85,0.00,,,0.00,0,Wunderground v.1.15,2013-03-03 10:13:00,
2013-03-03 02:15:00,40.4,36.2,30.22,West,280,0.0,-999.0,85,0.00,,,0.00,0,Wunderground v.1.15,2013-03-03 10:15:00,
2013-03-03 02:16:00,40.4,36.2,30.22,West,279,0.0,-999.0,85,0.00,,,0.00,0,Wunderground v.1.15,2013-03-03 10:16:00,
2013-03-03 02:18:00,40.4,36.5,30.22,WSW,253,0.0,-999.0,86,0.00,,,0.00,0,Wunderground v.1.15,2013-03-03 10:18:00,
2013-03-03 02:20:00,40.4,36.5,30.22,NNW,328,0.0,-999.0,86,0.00,,,0.00,0,Wunderground v.1.15,2013-03-03 10:20:00,
2013-03-03 02:21:00,40.4,36.5,30.22,NNW,328,1.0,-999.0,86,0.00,,,0.00,0,Wunderground v.1.15,2013-03-03 10:21:00,
2013-03-03 02:24:00,40.4,36.5,30.22,West,279,2.0,-999.0,86,0.00,,,0.00,0,Wunderground v.1.15,2013-03-03 10:24:00,
2013-03-03 02:26:00,40.4,36.2,30.22,SW,228,2.0,-999.0,85,0.00,,,0.00,0,Wunderground v.1.15,2013-03-03 10:26:00,
2013-03-03 02:29:00,40.5,36.3,30.22,WNW,286,0.0,-999.0,85,0.00,,,0.00,0,Wunderground v.1.15,2013-03-03 10:29:00,
2013-03-03 02:31:00,40.5,36.3,30.22,SW,222,0.0,-999.0,85,0.00,,,0.00,0,Wunderground v.1.15,2013-03-03 10:31:00,
2013-03-03 02:32:00,40.7,36.2,30.22,SSE,166,2.0,-999.0,84,0.00,,,0.00,0,Wunderground v.1.15,2013-03-03 10:32:00,
2013-03-03 02:34:00,40.7,36.2,30.22,SW,220,0.0,-999.0,84,0.00,,,0.00,0,Wunderground v.1.15,2013-03-03 10:34:00,
2013-03-03 02:36:00,40.8,36.3,30.22,SW,221,0.0,-999.0,84,0.00,,,0.00,0,Wunderground v.1.15,2013-03-03 10:36:00,
2013-03-03 02:37:00,40.8,36.3,30.22,West,276,2.0,-999.0,84,0.00,,,0.00,0,Wunderground v.1.15,2013-03-03 10:37:00,
2013-03-03 02:39:00,40.8,36.3,30.22,WSW,256,2.0,-999.0,84,0.00,,,0.00,0,Wunderground v.1.15,2013-03-03 10:39:00,
2013-03-03 02:41:00,40.9,36.1,30.22,West,261,2.0,-999.0,83,0.00,,,0.00,0,Wunderground v.1.15,2013-03-03 10:41:00,
2013-03-03 02:42:00,40.9,36.1,30.22,WSW,242,0.0,-999.0,83,0.00,,,0.00,0,Wunderground v.1.15,2013-03-03 10:42:00,
2013-03-03 02:45:00,40.9,36.1,30.22,WNW,301,1.0,-999.0,83,0.00,,,0.00,0,Wunderground v.1.15,2013-03-03 10:45:00,
2013-03-03 02:46:00,41.1,36.3,30.22,WSW,242,3.0,-999.0,83,0.00,,,0.00,0,Wunderground v.1.15,2013-03-03 10:46:00,
2013-03-03 02:47:00,41.1,36.3,30.22,West,273,2.0,-999.0,83,0.00,,,0.00,0,Wunderground v.1.15,2013-03-03 10:47:00,
2013-03-03 02:50:00,41.1,36.0,30.22,South,187,2.0,-999.0,82,0.00,,,0.00,0,Wunderground v.1.15,2013-03-03 10:50:00,
2013-03-03 02:51:00,41.1,36.0,30.22,West,269,3.0,-999.0,82,0.00,,,0.00,0,Wunderground v.1.15,2013-03-03 10:51:00,
2013-03-03 02:52:00,41.1,36.0,30.22,West,263,1.0,-999.0,82,0.00,,,0.00,0,Wunderground v.1.15,2013-03-03 10:52:00,
2013-03-03 02:53:00,41.1,36.0,30.22,WSW,251,3.0,-999.0,82,0.00,,,0.00,0,Wunderground v.1.15,2013-03-03 10:53:00,
2013-03-03 02:55:00,41.1,36.0,30.22,WSW,253,0.0,-999.0,82,0.00,,,0.00,0,Wunderground v.1.15,2013-03-03 10:55:00,
2013-03-03 02:57:00,41.1,36.0,30.22,NW,321,0.0,-999.0,82,0.00,,,0.00,0,Wunderground v.1.15,2013-03-03 10:57:00,
2013-03-03 02:59:00,41.1,36.0,30.22,SW,227,2.0,-999.0,82,0.00,,,0.00,0,Wunderground v.1.15,2013-03-03 10:59:00,
2013-03-03 03:00:00,41.1,36.0,30.22,SW,222,1.0,-999.0,82,0.00,,,0.00,0,Wunderground v.1.15,2013-03-03 11:00:00,
2013-03-03 03:02:00,41.1,36.0,30.22,WSW,249,6.0,-999.0,82,0.00,,,0.00,0,Wunderground v.1.15,2013-03-03 11:02:00,
2013-03-03 03:03:00,41.1,36.0,30.22,SSW,213,4.0,-999.0,82,0.00,,,0.00,0,Wunderground v.1.15,2013-03-03 11:03:00,
2013-03-03 03:04:00,41.1,36.0,30.22,WSW,249,0.0,-999.0,82,0.00,,,0.00,0,Wunderground v.1.15,2013-03-03 11:04:00,
2013-03-03 03:06:00,41.1,36.3,30.22,WSW,248,0.0,-999.0,83,0.00,,,0.00,0,Wunderground v.1.15,2013-03-03 11:06:00,
2013-03-03 03:07:00,41.1,36.3,30.22,West,261,0.0,-999.0,83,0.00,,,0.00,0,Wunderground v.1.15,2013-03-03 11:07:00,
2013-03-03 03:08:00,41.1,36.3,30.22,West,261,0.0,-999.0,83,0.00,,,0.00,0,Wunderground v.1.15,2013-03-03 11:08:00,
2013-03-03 03:09:00,41.1,36.3,30.22,West,275,0.0,-999.0,83,0.00,,,0.00,0,Wunderground v.1.15,2013-03-03 11:09:00,
2013-03-03 03:12:00,41.1,36.3,30.22,WNW,301,8.0,-999.0,83,0.00,,,0.00,0,Wunderground v.1.15,2013-03-03 11:12:00,
2013-03-03 03:13:00,40.9,36.4,30.22,NW,317,0.0,-999.0,84,0.00,,,0.00,0,Wunderground v.1.15,2013-03-03 11:13:00,
2013-03-03 03:14:00,40.9,36.4,30.22,NW,317,0.0,-999.0,84,0.00,,,0.00,0,Wunderground v.1.15,2013-03-03 11:14:00,
2013-03-03 03:17:00,40.9,36.4,30.23,West,268,1.0,-999.0,84,0.00,,,0.00,0,Wunderground v.1.15,2013-03-03 11:17:00,
2013-03-03 03:18:00,40.9,36.7,30.23,West,273,2.0,-999.0,85,0.00,,,0.00,0,Wunderground v.1.15,2013-03-03 11:18:00,
2013-03-03 03:19:00,40.9,36.7,30.23,West,259,2.0,-999.0,85,0.00,,,0.00,0,Wunderground v.1.15,2013-03-03 11:19:00,
2013-03-03 03:22:00,40.9,36.7,30.23,NNW,334,3.0,-999.0,85,0.00,,,0.00,0,Wunderground v.1.15,2013-03-03 11:22:00,
2013-03-03 03:23:00,40.8,36.6,30.23,NNW,335,4.0,-999.0,85,0.00,,,0.00,0,Wunderground v.1.15,2013-03-03 11:23:00,
2013-03-03 03:24:00,40.8,36.6,30.23,NNW,342,0.0,-999.0,85,0.00,,,0.00,0,Wunderground v.1.15,2013-03-03 11:24:00,
2013-03-03 03:27:00,40.8,36.6,30.23,West,277,0.0,-999.0,85,0.00,,,0.00,0,Wunderground v.1.15,2013-03-03 11:27:00,
2013-03-03 03:28:00,40.8,36.6,30.23,North,354,0.0,-999.0,85,0.00,,,0.00,0,Wunderground v.1.15,2013-03-03 11:28:00,
2013-03-03 03:29:00,40.8,36.6,30.23,North,354,0.0,-999.0,85,0.00,,,0.00,0,Wunderground v.1.15,2013-03-03 11:29:00,
2013-03-03 03:32:00,40.8,36.6,30.23,NNW,341,0.0,-999.0,85,0.00,,,0.00,0,Wunderground v.1.15,2013-03-03 11:32:00,
2013-03-03 03:34:00,40.8,36.9,30.23,NNW,340,0.0,-999.0,86,0.00,,,0.00,0,Wunderground v.1.15,2013-03-03 11:34:00,
2013-03-03 03:35:00,40.8,36.9,30.23,SW,229,0.0,-999.0,86,0.00,,,0.00,0,Wunderground v.1.15,2013-03-03 11:35:00,
2013-03-03 03:37:00,40.8,36.9,30.23,NNE,12,0.0,-999.0,86,0.00,,,0.00,0,Wunderground v.1.15,2013-03-03 11:37:00,
2013-03-03 03:39:00,40.8,36.9,30.23,North,1,0.0,-999.0,86,0.00,,,0.00,0,Wunderground v.1.15,2013-03-03 11:39:00,
2013-03-03 03:40:00,40.8,36.9,30.23,West,266,2.0,-999.0,86,0.00,,,0.00,0,Wunderground v.1.15,2013-03-03 11:40:00,
2013-03-03 03:42:00,40.7,36.8,30.23,WSW,244,0.0,-999.0,86,0.00,,,0.00,0,Wunderground v.1.15,2013-03-03 11:42:00,
2013-03-03 03:44:00,40.7,36.8,30.23,WSW,249,0.0,-999.0,86,0.00,,,0.00,0,Wunderground v.1.15,2013-03-03 11:44:00,
2013-03-03 03:45:00,40.7,36.8,30.23,WSW,249,0.0,-999.0,86,0.00,,,0.00,0,Wunderground v.1.15,2013-03-03 11:45:00,
2013-03-03 03:47:00,40.7,36.8,30.23,WSW,249,0.0,-999.0,86,0.00,,,0.00,0,Wunderground v.1.15,2013-03-03 11:47:00,
2013-03-03 03:49:00,40.7,36.8,30.23,South,174,0.0,-999.0,86,0.00,,,0.00,0,Wunderground v.1.15,2013-03-03 11:49:00,
2013-03-03 03:50:00,40.7,37.1,30.23,SSW,197,0.0,-999.0,87,0.00,,,0.00,0,Wunderground v.1.15,2013-03-03 11:50:00,
2013-03-03 03:52:00,40.7,37.1,30.23,SSW,197,0.0,-999.0,87,0.00,,,0.00,0,Wunderground v.1.15,2013-03-03 11:52:00,
2013-03-03 03:54:00,40.7,37.1,30.23,NNW,337,0.0,-999.0,87,0.00,,,0.00,0,Wunderground v.1.15,2013-03-03 11:54:00,
2013-03-03 03:55:00,40.7,37.1,30.23,NNW,337,0.0,-999.0,87,0.00,,,0.00,0,Wunderground v.1.15,2013-03-03 11:55:00,
2013-03-03 03:57:00,40.5,36.9,30.23,NNW,333,1.0,-999.0,87,0.00,,,0.00,0,Wunderground v.1.15,2013-03-03 11:57:00,
2013-03-03 03:59:00,40.5,36.9,30.23,NNW,333,0.0,-999.0,87,0.00,,,0.00,0,Wunderground v.1.15,2013-03-03 11:59:00,
2013-03-03 04:00:00,40.5,36.9,30.23,NNW,331,4.0,-999.0,87,0.00,,,0.00,0,Wunderground v.1.15,2013-03-03 12:00:00,
2013-03-03 04:02:00,40.5,36.9,30.23,NW,318,0.0,-999.0,87,0.00,,,0.00,0,Wunderground v.1.15,2013-03-03 12:02:00,
2013-03-03 04:04:00,40.5,36.9,30.23,West,268,1.0,-999.0,87,0.00,,,0.00,0,Wunderground v.1.15,2013-03-03 12:04:00,
2013-03-03 04:05:00,40.5,36.9,30.23,West,268,0.0,-999.0,87,0.00,,,0.00,0,Wunderground v.1.15,2013-03-03 12:05:00,
2013-03-03 04:08:00,40.5,36.9,30.23,North,354,0.0,-999.0,87,0.00,,,0.00,0,Wunderground v.1.15,2013-03-03 12:08:00,
2013-03-03 04:10:00,40.5,36.9,30.23,North,354,0.0,-999.0,87,0.00,,,0.00,0,Wunderground v.1.15,2013-03-03 12:10:00,
2013-03-03 04:11:00,40.5,36.9,30.23,North,354,0.0,-999.0,87,0.00,,,0.00,0,Wunderground v.1.15,2013-03-03 12:11:00,
2013-03-03 04:13:00,40.5,36.9,30.23,North,354,0.0,-999.0,87,0.00,,,0.00,0,Wunderground v.1.15,2013-03-03 12:13:00,
2013-03-03 04:15:00,40.5,36.9,30.23,NNW,337,0.0,-999.0,87,0.00,,,0.00,0,Wunderground v.1.15,2013-03-03 12:15:00,
2013-03-03 04:16:00,40.5,36.9,30.23,NNW,337,0.0,-999.0,87,0.00,,,0.00,0,Wunderground v.1.15,2013-03-03 12:16:00,
2013-03-03 04:18:00,40.5,36.9,30.23,NNW,337,2.0,-999.0,87,0.00,,,0.00,0,Wunderground v.1.15,2013-03-03 12:18:00,
2013-03-03 04:20:00,40.5,36.9,30.23,NW,324,0.0,-999.0,87,0.00,,,0.00,0,Wunderground v.1.15,2013-03-03 12:20:00,
2013-03-03 04:21:00,40.5,37.2,30.23,NNW,334,0.0,-999.0,88,0.00,,,0.00,0,Wunderground v.1.15,2013-03-03 12:21:00,
2013-03-03 04:23:00,40.5,37.2,30.23,NNW,335,0.0,-999.0,88,0.00,,,0.00,0,Wunderground v.1.15,2013-03-03 12:23:00,
2013-03-03 04:26:00,40.5,37.2,30.23,NNW,345,0.0,-999.0,88,0.00,,,0.00,0,Wunderground v.1.15,2013-03-03 12:26:00,
2013-03-03 04:29:00,40.5,37.2,30.23,SSW,197,0.0,-999.0,88,0.00,,,0.00,0,Wunderground v.1.15,2013-03-03 12:29:00,
2013-03-03 04:31:00,40.5,37.2,30.24,SSW,197,1.0,-999.0,88,0.00,,,0.00,0,Wunderground v.1.15,2013-03-03 12:31:00,
2013-03-03 04:32:00,40.5,37.2,30.24,SSW,197,0.0,-999.0,88,0.00,,,0.00,0,Wunderground v.1.15,2013-03-03 12:32:00,
2013-03-03 04:34:00,40.5,37.2,30.24,SSW,197,0.0,-999.0,88,0.00,,,0.00,0,Wunderground v.1.15,2013-03-03 12:34:00,
2013-03-03 04:36:00,40.5,37.2,30.24,SSW,197,0.0,-999.0,88,0.00,,,0.00,0,Wunderground v.1.15,2013-03-03 12:36:00,
2013-03-03 04:37:00,40.5,37.2,30.24,SSW,197,0.0,-999.0,88,0.00,,,0.00,0,Wunderground v.1.15,2013-03-03 12:37:00,
2013-03-03 04:40:00,40.7,37.4,30.24,SSW,207,0.0,-999.0,88,0.00,,,0.00,0,Wunderground v.1.15,2013-03-03 12:40:00,
2013-03-03 04:41:00,40.7,37.4,30.24,SSW,207,1.0,-999.0,88,0.00,,,0.00,0,Wunderground v.1.15,2013-03-03 12:41:00,
2013-03-03 04:42:00,40.7,37.4,30.24,SSW,211,1.0,-999.0,88,0.00,,,0.00,0,Wunderground v.1.15,2013-03-03 12:42:00,
2013-03-03 04:43:00,40.7,37.1,30.24,West,262,0.0,-999.0,87,0.00,,,0.00,0,Wunderground v.1.15,2013-03-03 12:43:00,
2013-03-03 04:45:00,40.7,37.1,30.24,NNW,335,0.0,-999.0,87,0.00,,,0.00,0,Wunderground v.1.15,2013-03-03 12:45:00,
2013-03-03 04:47:00,40.7,37.1,30.24,NNW,335,0.0,-999.0,87,0.00,,,0.00,0,Wunderground v.1.15,2013-03-03 12:47:00,
2013-03-03 04:48:00,40.7,37.1,30.24,NW,316,0.0,-999.0,87,0.00,,,0.00,0,Wunderground v.1.15,2013-03-03 12:48:00,
2013-03-03 04:50:00,40.7,37.1,30.24,NW,316,0.0,-999.0,87,0.00,,,0.00,0,Wunderground v.1.15,2013-03-03 12:50:00,
2013-03-03 04:52:00,40.7,37.1,30.24,NW,316,1.0,-999.0,87,0.00,,,0.00,0,Wunderground v.1.15,2013-03-03 12:52:00,
2013-03-03 04:53:00,40.7,37.1,30.24,NW,316,0.0,-999.0,87,0.00,,,0.00,0,Wunderground v.1.15,2013-03-03 12:53:00,
2013-03-03 04:55:00,40.7,37.1,30.24,NW,316,0.0,-999.0,87,0.00,,,0.00,0,Wunderground v.1.15,2013-03-03 12:55:00,
2013-03-03 04:57:00,40.7,37.4,30.24,NW,316,0.0,-999.0,88,0.00,,,0.00,0,Wunderground v.1.15,2013-03-03 12:57:00,
2013-03-03 04:58:00,40.7,37.4,30.24,NW,316,1.0,-999.0,88,0.00,,,0.00,0,Wunderground v.1.15,2013-03-03 12:58:00,
2013-03-03 05:00:00,40.7,37.4,30.24,North,352,0.0,-999.0,88,0.00,,,0.00,0,Wunderground v.1.15,2013-03-03 13:00:00,
2013-03-03 05:02:00,40.7,37.4,30.24,NNW,340,0.0,-999.0,88,0.00,,,0.00,0,Wunderground v.1.15,2013-03-03 13:02:00,
2013-03-03 05:03:00,40.7,37.1,30.24,NNW,340,0.0,-999.0,87,0.00,,,0.00,0,Wunderground v.1.15,2013-03-03 13:03:00,
2013-03-03 05:06:00,40.7,37.1,30.24,NNW,340,0.0,-999.0,87,0.00,,,0.00,0,Wunderground v.1.15,2013-03-03 13:06:00,
2013-03-03 05:07:00,40.7,37.1,30.24,NNW,340,0.0,-999.0,87,0.00,,,0.00,0,Wunderground v.1.15,2013-03-03 13:07:00,
2013-03-03 05:09:00,40.7,37.4,30.24,NW,321,0.0,-999.0,88,0.00,,,0.00,0,Wunderground v.1.15,2013-03-03 13:09:00,
2013-03-03 05:10:00,40.7,37.4,30.24,NW,323,1.0,-999.0,88,0.00,,,0.00,0,Wunderground v.1.15,2013-03-03 13:10:00,
2013-03-03 05:11:00,40.7,37.4,30.24,NNW,333,2.0,-999.0,88,0.00,,,0.00,0,Wunderground v.1.15,2013-03-03 13:11:00,
2013-03-03 05:12:00,40.7,37.4,30.24,NNW,331,0.0,-999.0,88,0.00,,,0.00,0,Wunderground v.1.15,2013-03-03 13:12:00,
2013-03-03 05:15:00,40.7,37.1,30.24,WNW,300,0.0,-999.0,87,0.00,,,0.00,0,Wunderground v.1.15,2013-03-03 13:15:00,
2013-03-03 05:16:00,40.7,37.1,30.24,NW,325,4.0,-999.0,87,0.00,,,0.00,0,Wunderground v.1.15,2013-03-03 13:16:00,
2013-03-03 05:17:00,40.7,37.4,30.24,NW,307,0.0,-999.0,88,0.00,,,0.00,0,Wunderground v.1.15,2013-03-03 13:17:00,
2013-03-03 05:20:00,40.7,37.4,30.24,North,349,2.0,-999.0,88,0.00,,,0.00,0,Wunderground v.1.15,2013-03-03 13:20:00,
2013-03-03 05:22:00,40.8,37.5,30.24,North,349,0.0,-999.0,88,0.00,,,0.00,0,Wunderground v.1.15,2013-03-03 13:22:00,
2013-03-03 05:23:00,40.8,37.5,30.24,North,349,0.0,-999.0,88,0.00,,,0.00,0,Wunderground v.1.15,2013-03-03 13:23:00,
2013-03-03 05:25:00,40.8,37.5,30.24,North,349,0.0,-999.0,88,0.00,,,0.00,0,Wunderground v.1.15,2013-03-03 13:25:00,
2013-03-03 05:27:00,40.8,37.5,30.24,North,349,0.0,-999.0,88,0.00,,,0.00,0,Wunderground v.1.15,2013-03-03 13:27:00,
2013-03-03 05:28:00,40.8,37.5,30.24,North,349,0.0,-999.0,88,0.00,,,0.00,0,Wunderground v.1.15,2013-03-03 13:28:00,
2013-03-03 05:30:00,40.8,37.5,30.24,North,349,0.0,-999.0,88,0.00,,,0.00,0,Wunderground v.1.15,2013-03-03 13:30:00,
2013-03-03 05:31:00,40.8,37.5,30.25,North,349,0.0,-999.0,88,0.00,,,0.00,0,Wunderground v.1.15,2013-03-03 13:31:00,
2013-03-03 05:32:00,40.8,37.5,30.25,NW,307,3.0,-999.0,88,0.00,,,0.00,0,Wunderground v.1.15,2013-03-03 13:32:00,
2013-03-03 05:33:00,40.8,37.5,30.25,NW,316,0.0,-999.0,88,0.00,,,0.00,0,Wunderground v.1.15,2013-03-03 13:33:00,
2013-03-03 05:35:00,40.8,37.5,30.25,WSW,253,0.0,-999.0,88,0.00,,,0.00,0,Wunderground v.1.15,2013-03-03 13:35:00,
2013-03-03 05:36:00,40.8,37.5,30.25,WSW,253,0.0,-999.0,88,0.00,,,0.00,0,Wunderground v.1.15,2013-03-03 13:36:00,
2013-03-03 05:37:00,40.8,37.5,30.25,NW,316,0.0,-999.0,88,0.00,,,0.00,0,Wunderground v.1.15,2013-03-03 13:37:00,
2013-03-03 05:38:00,40.8,37.5,30.25,NNW,327,0.0,-999.0,88,0.00,,,0.00,0,Wunderground v.1.15,2013-03-03 13:38:00,
2013-03-03 05:40:00,40.8,37.5,30.25,NNW,327,0.0,-999.0,88,0.00,,,0.00,0,Wunderground v.1.15,2013-03-03 13:40:00,
2013-03-03 05:41:00,40.8,37.5,30.25,NNW,327,0.0,-999.0,88,0.00,,,0.00,0,Wunderground v.1.15,2013-03-03 13:41:00,
2013-03-03 05:42:00,40.8,37.5,30.25,NNW,327,0.0,-999.0,88,0.00,,,0.00,0,Wunderground v.1.15,2013-03-03 13:42:00,
2013-03-03 05:43:00,40.7,37.4,30.25,NNW,327,0.0,-999.0,88,0.00,,,0.00,0,Wunderground v.1.15,2013-03-03 13:43:00,
2013-03-03 05:46:00,40.7,37.1,30.25,NNW,327,0.0,-999.0,87,0.00,,,0.00,0,Wunderground v.1.15,2013-03-03 13:46:00,
2013-03-03 05:47:00,40.7,37.1,30.25,NNW,327,0.0,-999.0,87,0.00,,,0.00,0,Wunderground v.1.15,2013-03-03 13:47:00,
2013-03-03 05:48:00,40.7,37.1,30.25,NNW,327,0.0,-999.0,87,0.00,,,0.00,0,Wunderground v.1.15,2013-03-03 13:48:00,
2013-03-03 05:51:00,40.7,37.1,30.25,NNW,342,1.0,-999.0,87,0.00,,,0.00,0,Wunderground v.1.15,2013-03-03 13:51:00,
2013-03-03 05:53:00,40.5,36.9,30.25,NNW,342,0.0,-999.0,87,0.00,,,0.00,0,Wunderground v.1.15,2013-03-03 13:53:00,
2013-03-03 05:56:00,40.5,36.9,30.25,NNW,342,0.0,-999.0,87,0.00,,,0.00,0,Wunderground v.1.15,2013-03-03 13:56:00,
2013-03-03 05:57:00,40.5,36.9,30.25,NNW,342,0.0,-999.0,87,0.00,,,0.00,0,Wunderground v.1.15,2013-03-03 13:57:00,
2013-03-03 05:58:00,40.4,36.8,30.25,NNW,342,0.0,-999.0,87,0.00,,,0.00,0,Wunderground v.1.15,2013-03-03 13:58:00,
2013-03-03 05:59:00,40.4,36.8,30.25,NNW,342,0.0,-999.0,87,0.00,,,0.00,0,Wunderground v.1.15,2013-03-03 13:59:00,
2013-03-03 06:01:00,40.4,36.8,30.25,NNW,342,0.0,-999.0,87,0.00,,,0.00,0,Wunderground v.1.15,2013-03-03 14:01:00,
2013-03-03 06:02:00,40.2,36.6,30.25,NNW,342,0.0,-999.0,87,0.00,,,0.00,0,Wunderground v.1.15,2013-03-03 14:02:00,
2013-03-03 06:04:00,40.2,36.6,30.25,NNW,342,0.0,-999.0,87,0.00,,,0.00,0,Wunderground v.1.15,2013-03-03 14:04:00,
2013-03-03 06:06:00,40.1,36.5,30.25,NNW,338,0.0,-999.0,87,0.00,,,0.00,0,Wunderground v.1.15,2013-03-03 14:06:00,
2013-03-03 06:07:00,40.1,36.5,30.25,NNW,338,0.0,-999.0,87,0.00,,,0.00,0,Wunderground v.1.15,2013-03-03 14:07:00,
2013-03-03 06:09:00,39.9,36.3,30.25,NNW,338,0.0,-999.0,87,0.00,,,0.00,0,Wunderground v.1.15,2013-03-03 14:09:00,
2013-03-03 06:11:00,39.9,36.6,30.25,NNW,338,0.0,-999.0,88,0.00,,,0.00,0,Wunderground v.1.15,2013-03-03 14:11:00,
2013-03-03 06:12:00,39.9,36.6,30.25,NNW,338,0.0,-999.0,88,0.00,,,0.00,0,Wunderground v.1.15,2013-03-03 14:12:00,
2013-03-03 06:15:00,39.8,36.5,30.25,NNW,333,0.0,-999.0,88,0.00,,,0.00,0,Wunderground v.1.15,2013-03-03 14:15:00,
2013-03-03 06:16:00,39.8,36.5,30.25,NNW,338,0.0,-999.0,88,0.00,,,0.00,0,Wunderground v.1.15,2013-03-03 14:16:00,
2013-03-03 06:17:00,39.7,36.1,30.25,NNW,338,0.0,-999.0,87,0.00,,,0.00,0,Wunderground v.1.15,2013-03-03 14:17:00,
2013-03-03 06:20:00,39.7,36.1,30.25,NNW,338,0.0,-999.0,87,0.00,,,0.00,0,Wunderground v.1.15,2013-03-03 14:20:00,
2013-03-03 06:22:00,39.5,36.0,30.25,NNW,338,0.0,-999.0,87,0.00,,,0.00,0,Wunderground v.1.15,2013-03-03 14:22:00,
2013-03-03 06:25:00,39.4,35.9,30.25,NNW,338,0.0,-999.0,87,0.00,,,0.00,0,Wunderground v.1.15,2013-03-03 14:25:00,
2013-03-03 06:27:00,39.4,36.1,30.25,NNW,338,0.0,-999.0,88,0.00,,,0.00,0,Wunderground v.1.15,2013-03-03 14:27:00,
2013-03-03 06:30:00,39.2,35.9,30.25,NNW,338,0.0,-999.0,88,0.00,,,0.00,0,Wunderground v.1.15,2013-03-03 14:30:00,
2013-03-03 06:32:00,39.2,35.9,30.25,NNW,338,0.0,-999.0,88,0.00,,,0.00,0,Wunderground v.1.15,2013-03-03 14:32:00,
2013-03-03 06:35:00,39.1,35.8,30.25,NNW,338,0.0,-999.0,88,0.00,,,0.00,0,Wunderground v.1.15,2013-03-03 14:35:00,
2013-03-03 06:37:00,39.1,35.8,30.25,NNW,338,0.0,-999.0,88,0.00,,,0.00,0,Wunderground v.1.15,2013-03-03 14:37:00,
2013-03-03 06:38:00,38.9,35.6,30.25,NNW,338,0.0,-999.0,88,0.00,,,0.00,0,Wunderground v.1.15,2013-03-03 14:38:00,
2013-03-03 06:40:00,38.9,35.6,30.25,NNW,338,1.0,-999.0,88,0.00,,,0.00,0,Wunderground v.1.15,2013-03-03 14:40:00,
2013-03-03 06:42:00,38.9,35.6,30.25,NNW,338,0.0,-999.0,88,0.00,,,0.00,0,Wunderground v.1.15,2013-03-03 14:42:00,
2013-03-03 06:43:00,38.8,35.6,30.25,NNW,338,0.0,-999.0,88,0.00,,,0.00,0,Wunderground v.1.15,2013-03-03 14:43:00,
2013-03-03 06:45:00,38.8,35.6,30.25,NNW,338,0.0,-999.0,88,0.00,,,0.00,0,Wunderground v.1.15,2013-03-03 14:45:00,
2013-03-03 06:47:00,38.8,35.8,30.25,NNW,338,0.0,-999.0,89,0.00,,,0.00,0,Wunderground v.1.15,2013-03-03 14:47:00,
2013-03-03 06:48:00,38.6,35.6,30.25,NNW,338,0.0,-999.0,89,0.00,,,0.00,0,Wunderground v.1.15,2013-03-03 14:48:00,
2013-03-03 06:50:00,38.6,35.6,30.25,NNW,338,0.0,-999.0,89,0.00,,,0.00,0,Wunderground v.1.15,2013-03-03 14:50:00,
2013-03-03 06:51:00,38.6,35.6,30.25,NNW,338,1.0,-999.0,89,0.00,,,0.00,0,Wunderground v.1.15,2013-03-03 14:51:00,
2013-03-03 06:52:00,38.6,35.6,30.25,NNW,338,0.0,-999.0,89,0.00,,,0.00,0,Wunderground v.1.15,2013-03-03 14:52:00,
2013-03-03 06:53:00,38.6,35.6,30.25,NNW,338,0.0,-999.0,89,0.00,,,0.00,0,Wunderground v.1.15,2013-03-03 14:53:00,
2013-03-03 06:56:00,38.5,35.5,30.25,NNW,338,0.0,-999.0,89,0.00,,,0.00,0,Wunderground v.1.15,2013-03-03 14:56:00,
2013-03-03 06:57:00,38.5,35.5,30.25,NNW,338,0.0,-999.0,89,0.00,,,0.00,0,Wunderground v.1.15,2013-03-03 14:57:00,
2013-03-03 06:58:00,38.5,35.5,30.25,NNW,338,0.0,-999.0,89,0.00,,,0.00,0,Wunderground v.1.15,2013-03-03 14:58:00,
2013-03-03 07:01:00,38.4,35.4,30.26,NNW,338,0.0,-999.0,89,0.00,,,0.00,0,Wunderground v.1.15,2013-03-03 15:01:00,
2013-03-03 07:02:00,38.4,35.4,30.26,NNW,338,0.0,-999.0,89,0.00,,,0.00,0,Wunderground v.1.15,2013-03-03 15:02:00,
2013-03-03 07:04:00,38.2,35.2,30.26,NNW,338,0.0,-999.0,89,0.00,,,0.00,0,Wunderground v.1.15,2013-03-03 15:04:00,
2013-03-03 07:06:00,38.2,35.5,30.26,NNW,338,0.0,-999.0,90,0.00,,,0.00,0,Wunderground v.1.15,2013-03-03 15:06:00,
2013-03-03 07:07:00,38.2,35.5,30.26,NNW,338,0.0,-999.0,90,0.00,,,0.00,0,Wunderground v.1.15,2013-03-03 15:07:00,
2013-03-03 07:09:00,38.1,35.4,30.26,NNW,338,0.0,-999.0,90,0.00,,,0.00,0,Wunderground v.1.15,2013-03-03 15:09:00,
2013-03-03 07:11:00,38.1,35.4,30.26,NNW,338,0.0,-999.0,90,0.00,,,0.00,0,Wunderground v.1.15,2013-03-03 15:11:00,
2013-03-03 07:12:00,38.1,35.4,30.26,NNW,338,0.0,-999.0,90,0.00,,,0.00,0,Wunderground v.1.15,2013-03-03 15:12:00,
2013-03-03 07:14:00,37.9,35.2,30.26,NNW,338,0.0,-999.0,90,0.00,,,0.00,7,Wunderground v.1.15,2013-03-03 15:14:00,
2013-03-03 07:16:00,37.8,35.1,30.26,NNW,338,0.0,-999.0,90,0.00,,,0.00,7,Wunderground v.1.15,2013-03-03 15:16:00,
2013-03-03 07:17:00,37.8,35.1,30.26,NNW,338,0.0,-999.0,90,0.00,,,0.00,5,Wunderground v.1.15,2013-03-03 15:17:00,
2013-03-03 07:18:00,37.8,35.1,30.26,NNW,338,0.0,-999.0,90,0.00,,,0.00,5,Wunderground v.1.15,2013-03-03 15:18:00,
2013-03-03 07:19:00,37.8,35.1,30.26,NNW,338,0.0,-999.0,90,0.00,,,0.00,5,Wunderground v.1.15,2013-03-03 15:19:00,
2013-03-03 07:21:00,37.6,34.9,30.26,NNW,338,0.0,-999.0,90,0.00,,,0.00,0,Wunderground v.1.15,2013-03-03 15:21:00,
2013-03-03 07:22:00,37.6,34.9,30.26,NNW,338,0.0,-999.0,90,0.00,,,0.00,0,Wunderground v.1.15,2013-03-03 15:22:00,
2013-03-03 07:23:00,37.6,34.9,30.26,NNW,338,0.0,-999.0,90,0.00,,,0.00,0,Wunderground v.1.15,2013-03-03 15:23:00,
2013-03-03 07:24:00,37.5,34.8,30.26,NNW,338,0.0,-999.0,90,0.00,,,0.00,0,Wunderground v.1.15,2013-03-03 15:24:00,
2013-03-03 07:27:00,37.5,34.8,30.26,NNW,338,0.0,-999.0,90,0.00,,,0.00,5,Wunderground v.1.15,2013-03-03 15:27:00,
2013-03-03 07:28:00,37.4,34.7,30.26,NNW,338,0.0,-999.0,90,0.00,,,0.00,5,Wunderground v.1.15,2013-03-03 15:28:00,
2013-03-03 07:29:00,37.4,35.0,30.26,NNW,338,0.0,-999.0,91,0.00,,,0.00,5,Wunderground v.1.15,2013-03-03 15:29:00,
2013-03-03 07:32:00,37.2,34.8,30.26,NNW,338,0.0,-999.0,91,0.00,,,0.00,14,Wunderground v.1.15,2013-03-03 15:32:00,
2013-03-03 07:33:00,37.2,34.8,30.26,NNW,338,0.0,-999.0,91,0.00,,,0.00,14,Wunderground v.1.15,2013-03-03 15:33:00,
2013-03-03 07:34:00,37.2,34.8,30.26,NNW,333,0.0,-999.0,91,0.00,,,0.00,18,Wunderground v.1.15,2013-03-03 15:34:00,
2013-03-03 07:35:00,37.2,34.8,30.26,NNW,338,0.0,-999.0,91,0.00,,,0.00,18,Wunderground v.1.15,2013-03-03 15:35:00,
2013-03-03 07:37:00,37.1,34.7,30.26,NNW,338,0.0,-999.0,91,0.00,,,0.00,18,Wunderground v.1.15,2013-03-03 15:37:00,
2013-03-03 07:38:00,37.1,34.7,30.26,NNW,338,0.0,-999.0,91,0.00,,,0.00,18,Wunderground v.1.15,2013-03-03 15:38:00,
2013-03-03 07:39:00,37.1,34.7,30.26,NNW,338,0.0,-999.0,91,0.00,,,0.00,25,Wunderground v.1.15,2013-03-03 15:39:00,
2013-03-03 07:40:00,37.1,34.7,30.26,NNW,338,0.0,-999.0,91,0.00,,,0.00,25,Wunderground v.1.15,2013-03-03 15:40:00,
2013-03-03 07:42:00,37.1,34.7,30.26,NNW,338,0.0,-999.0,91,0.00,,,0.00,25,Wunderground v.1.15,2013-03-03 15:42:00,
2013-03-03 07:43:00,37.1,34.7,30.26,NNW,338,0.0,-999.0,91,0.00,,,0.00,12,Wunderground v.1.15,2013-03-03 15:43:00,
2013-03-03 07:44:00,37.1,34.7,30.26,NNW,338,0.0,-999.0,91,0.00,,,0.00,12,Wunderground v.1.15,2013-03-03 15:44:00,
2013-03-03 07:46:00,37.1,34.7,30.27,NNW,338,0.0,-999.0,91,0.00,,,0.00,12,Wunderground v.1.15,2013-03-03 15:46:00,
2013-03-03 07:47:00,37.1,34.7,30.27,NNW,338,0.0,-999.0,91,0.00,,,0.00,23,Wunderground v.1.15,2013-03-03 15:47:00,
2013-03-03 07:48:00,37.1,34.7,30.27,NNW,338,0.0,-999.0,91,0.00,,,0.00,23,Wunderground v.1.15,2013-03-03 15:48:00,
2013-03-03 07:49:00,37.1,34.7,30.27,NNW,338,0.0,-999.0,91,0.00,,,0.00,23,Wunderground v.1.15,2013-03-03 15:49:00,
2013-03-03 07:51:00,37.2,34.8,30.27,NNW,338,0.0,-999.0,91,0.00,,,0.00,25,Wunderground v.1.15,2013-03-03 15:51:00,
2013-03-03 07:52:00,37.2,34.8,30.27,NNW,338,0.0,-999.0,91,0.00,,,0.00,25,Wunderground v.1.15,2013-03-03 15:52:00,
2013-03-03 07:54:00,37.2,34.8,30.27,NNW,338,0.0,-999.0,91,0.00,,,0.00,25,Wunderground v.1.15,2013-03-03 15:54:00,
2013-03-03 07:56:00,37.4,35.0,30.27,NNW,338,0.0,-999.0,91,0.00,,,0.00,26,Wunderground v.1.15,2013-03-03 15:56:00,
2013-03-03 07:59:00,37.5,35.1,30.27,NNW,338,0.0,-999.0,91,0.00,,,0.00,28,Wunderground v.1.15,2013-03-03 15:59:00,
2013-03-03 08:01:00,37.6,35.2,30.27,NNW,338,0.0,-999.0,91,0.00,,,0.00,28,Wunderground v.1.15,2013-03-03 16:01:00,
2013-03-03 08:04:00,37.8,35.4,30.27,NNW,338,0.0,-999.0,91,0.00,,,0.00,37,Wunderground v.1.15,2013-03-03 16:04:00,
2013-03-03 08:07:00,37.8,35.4,30.27,NNW,338,0.0,-999.0,91,0.00,,,0.00,37,Wunderground v.1.15,2013-03-03 16:07:00,
2013-03-03 08:09:00,37.9,35.5,30.27,NNW,338,0.0,-999.0,91,0.00,,,0.00,44,Wunderground v.1.15,2013-03-03 16:09:00,
2013-03-03 08:12:00,38.1,35.7,30.27,NNW,338,0.0,-999.0,91,0.00,,,0.00,55,Wunderground v.1.15,2013-03-03 16:12:00,
2013-03-03 08:14:00,38.2,35.8,30.27,NNW,338,0.0,-999.0,91,0.00,,,0.00,55,Wunderground v.1.15,2013-03-03 16:14:00,
2013-03-03 08:15:00,38.2,35.8,30.27,NNW,338,0.0,-999.0,91,0.00,,,0.00,55,Wunderground v.1.15,2013-03-03 16:15:00,
2013-03-03 08:17:00,38.4,36.0,30.27,NNW,338,0.0,-999.0,91,0.00,,,0.00,72,Wunderground v.1.15,2013-03-03 16:17:00,
2013-03-03 08:19:00,38.5,36.1,30.27,NNW,338,0.0,-999.0,91,0.00,,,0.00,65,Wunderground v.1.15,2013-03-03 16:19:00,
2013-03-03 08:20:00,38.5,36.1,30.27,NNW,338,0.0,-999.0,91,0.00,,,0.00,65,Wunderground v.1.15,2013-03-03 16:20:00,
2013-03-03 08:22:00,38.6,36.2,30.27,NNW,338,0.0,-999.0,91,0.00,,,0.00,69,Wunderground v.1.15,2013-03-03 16:22:00,
2013-03-03 08:25:00,38.8,36.4,30.27,NNW,338,0.0,-999.0,91,0.00,,,0.00,67,Wunderground v.1.15,2013-03-03 16:25:00,
2013-03-03 08:26:00,38.9,36.5,30.27,NNW,338,0.0,-999.0,91,0.00,,,0.00,65,Wunderground v.1.15,2013-03-03 16:26:00,
2013-03-03 08:28:00,38.9,36.5,30.27,NNW,338,0.0,-999.0,91,0.00,,,0.00,56,Wunderground v.1.15,2013-03-03 16:28:00,
2013-03-03 08:30:00,39.1,36.7,30.27,NNW,338,0.0,-999.0,91,0.00,,,0.00,58,Wunderground v.1.15,2013-03-03 16:30:00,
2013-03-03 08:31:00,39.2,36.8,30.27,NNW,338,0.0,-999.0,91,0.00,,,0.00,56,Wunderground v.1.15,2013-03-03 16:31:00,
2013-03-03 08:33:00,39.2,36.8,30.27,NNW,338,0.0,-999.0,91,0.00,,,0.00,56,Wunderground v.1.15,2013-03-03 16:33:00,
2013-03-03 08:35:00,39.4,37.0,30.27,NNW,338,0.0,-999.0,91,0.00,,,0.00,56,Wunderground v.1.15,2013-03-03 16:35:00,
2013-03-03 08:36:00,39.4,37.0,30.27,NNW,338,0.0,-999.0,91,0.00,,,0.00,55,Wunderground v.1.15,2013-03-03 16:36:00,
2013-03-03 08:38:00,39.5,37.1,30.27,NNW,338,0.0,-999.0,91,0.00,,,0.00,48,Wunderground v.1.15,2013-03-03 16:38:00,
2013-03-03 08:40:00,39.7,37.3,30.27,NNW,338,0.0,-999.0,91,0.00,,,0.00,30,Wunderground v.1.15,2013-03-03 16:40:00,
2013-03-03 08:41:00,39.7,37.3,30.27,NNW,338,0.0,-999.0,91,0.00,,,0.00,28,Wunderground v.1.15,2013-03-03 16:41:00,
2013-03-03 08:43:00,39.8,37.4,30.27,NNW,338,0.0,-999.0,91,0.00,,,0.00,28,Wunderground v.1.15,2013-03-03 16:43:00,
2013-03-03 08:45:00,39.9,37.5,30.27,NNW,338,0.0,-999.0,91,0.00,,,0.00,30,Wunderground v.1.15,2013-03-03 16:45:00,
2013-03-03 08:46:00,39.9,37.5,30.27,NNW,338,0.0,-999.0,91,0.00,,,0.00,30,Wunderground v.1.15,2013-03-03 16:46:00,
2013-03-03 08:47:00,39.9,37.5,30.27,NNW,338,0.0,-999.0,91,0.00,,,0.00,35,Wunderground v.1.15,2013-03-03 16:47:00,
2013-03-03 08:49:00,40.1,37.7,30.27,NNW,338,0.0,-999.0,91,0.00,,,0.00,46,Wunderground v.1.15,2013-03-03 16:49:00,
2013-03-03 08:51:00,40.1,37.7,30.27,NNW,338,0.0,-999.0,91,0.00,,,0.00,46,Wunderground v.1.15,2013-03-03 16:51:00,
2013-03-03 08:52:00,40.2,37.8,30.27,NNW,338,0.0,-999.0,91,0.00,,,0.00,55,Wunderground v.1.15,2013-03-03 16:52:00,
2013-03-03 08:54:00,40.4,38.0,30.27,NNW,338,0.0,-999.0,91,0.00,,,0.00,55,Wunderground v.1.15,2013-03-03 16:54:00,
2013-03-03 08:56:00,40.5,38.1,30.27,NNW,338,0.0,-999.0,91,0.00,,,0.00,65,Wunderground v.1.15,2013-03-03 16:56:00,
2013-03-03 08:57:00,40.5,38.1,30.27,NNW,338,0.0,-999.0,91,0.00,,,0.00,70,Wunderground v.1.15,2013-03-03 16:57:00,
2013-03-03 08:59:00,40.7,38.3,30.27,NNW,338,0.0,-999.0,91,0.00,,,0.00,56,Wunderground v.1.15,2013-03-03 16:59:00,
2013-03-03 09:01:00,40.8,38.4,30.27,NNW,338,2.0,-999.0,91,0.00,,,0.00,69,Wunderground v.1.15,2013-03-03 17:01:00,
2013-03-03 09:02:00,40.8,38.4,30.27,NNW,338,0.0,-999.0,91,0.00,,,0.00,69,Wunderground v.1.15,2013-03-03 17:02:00,
2013-03-03 09:04:00,40.8,38.4,30.27,NNW,338,0.0,-999.0,91,0.00,,,0.00,76,Wunderground v.1.15,2013-03-03 17:04:00,
2013-03-03 09:06:00,40.9,38.5,30.27,NNW,331,0.0,-999.0,91,0.00,,,0.00,74,Wunderground v.1.15,2013-03-03 17:06:00,
2013-03-03 09:07:00,40.9,38.5,30.27,NNW,331,1.0,-999.0,91,0.00,,,0.00,74,Wunderground v.1.15,2013-03-03 17:07:00,
2013-03-03 09:10:00,41.1,38.7,30.27,NW,310,0.0,-999.0,91,0.00,,,0.00,74,Wunderground v.1.15,2013-03-03 17:10:00,
2013-03-03 09:11:00,41.1,38.7,30.27,NW,310,2.0,-999.0,91,0.00,,,0.00,69,Wunderground v.1.15,2013-03-03 17:11:00,
2013-03-03 09:12:00,41.1,38.7,30.27,NW,310,1.0,-999.0,91,0.00,,,0.00,69,Wunderground v.1.15,2013-03-03 17:12:00,
2013-03-03 09:13:00,41.2,38.8,30.27,NW,310,0.0,-999.0,91,0.00,,,0.00,69,Wunderground v.1.15,2013-03-03 17:13:00,
2013-03-03 09:16:00,41.2,38.8,30.26,NW,309,0.0,-999.0,91,0.00,,,0.00,72,Wunderground v.1.15,2013-03-03 17:16:00,
2013-03-03 09:17:00,41.4,39.0,30.26,NW,309,0.0,-999.0,91,0.00,,,0.00,76,Wunderground v.1.15,2013-03-03 17:17:00,
2013-03-03 09:18:00,41.4,39.0,30.26,NW,309,0.0,-999.0,91,0.00,,,0.00,83,Wunderground v.1.15,2013-03-03 17:18:00,
2013-03-03 09:21:00,41.5,38.8,30.26,NNW,342,0.0,-999.0,90,0.00,,,0.00,102,Wunderground v.1.15,2013-03-03 17:21:00,
2013-03-03 09:22:00,41.5,38.8,30.26,NNW,327,2.0,-999.0,90,0.00,,,0.00,107,Wunderground v.1.15,2013-03-03 17:22:00,
2013-03-03 09:23:00,41.7,39.0,30.26,NNW,331,0.0,-999.0,90,0.00,,,0.00,113,Wunderground v.1.15,2013-03-03 17:23:00,
2013-03-03 09:26:00,41.8,38.8,30.26,WSW,242,0.0,-999.0,89,0.00,,,0.00,99,Wunderground v.1.15,2013-03-03 17:26:00,
2013-03-03 09:27:00,41.8,38.8,30.26,SSW,197,0.0,-999.0,89,0.00,,,0.00,93,Wunderground v.1.15,2013-03-03 17:27:00,
2013-03-03 09:28:00,41.9,38.6,30.26,NW,325,0.0,-999.0,88,0.00,,,0.00,93,Wunderground v.1.15,2013-03-03 17:28:00,
2013-03-03 09:31:00,42.1,38.5,30.27,NNW,344,0.0,-999.0,87,0.00,,,0.00,88,Wunderground v.1.15,2013-03-03 17:31:00,
2013-03-03 09:32:00,42.1,38.2,30.27,NNW,344,0.0,-999.0,86,0.00,,,0.00,88,Wunderground v.1.15,2013-03-03 17:32:00,
2013-03-03 09:34:00,42.2,38.6,30.27,West,276,0.0,-999.0,87,0.00,,,0.00,90,Wunderground v.1.15,2013-03-03 17:34:00,
2013-03-03 09:36:00,42.2,38.0,30.27,NNW,333,0.0,-999.0,85,0.00,,,0.00,86,Wunderground v.1.15,2013-03-03 17:36:00,
2013-03-03 09:37:00,42.2,38.0,30.27,NNW,333,0.0,-999.0,85,0.00,,,0.00,83,Wunderground v.1.15,2013-03-03 17:37:00,
2013-03-03 09:38:00,42.4,38.2,30.27,NNW,333,0.0,-999.0,85,0.00,,,0.00,83,Wunderground v.1.15,2013-03-03 17:38:00,
2013-03-03 09:39:00,42.4,38.2,30.27,NNW,333,0.0,-999.0,85,0.00,,,0.00,81,Wunderground v.1.15,2013-03-03 17:39:00,
2013-03-03 09:42:00,42.4,37.6,30.27,SSE,155,0.0,-999.0,83,0.00,,,0.00,91,Wunderground v.1.15,2013-03-03 17:42:00,
2013-03-03 09:43:00,42.5,37.7,30.27,North,355,0.0,-999.0,83,0.00,,,0.00,95,Wunderground v.1.15,2013-03-03 17:43:00,
2013-03-03 09:45:00,42.5,37.7,30.27,SW,227,0.0,-999.0,83,0.00,,,0.00,99,Wunderground v.1.15,2013-03-03 17:45:00,
2013-03-03 09:47:00,42.7,37.6,30.27,West,263,3.0,-999.0,82,0.00,,,0.00,99,Wunderground v.1.15,2013-03-03 17:47:00,
2013-03-03 09:48:00,42.7,37.6,30.27,West,263,0.0,-999.0,82,0.00,,,0.00,107,Wunderground v.1.15,2013-03-03 17:48:00,
2013-03-03 09:50:00,42.7,37.3,30.27,SSW,193,0.0,-999.0,81,0.00,,,0.00,100,Wunderground v.1.15,2013-03-03 17:50:00,
2013-03-03 09:52:00,42.8,37.1,30.27,NNE,30,0.0,-999.0,80,0.00,,,0.00,90,Wunderground v.1.15,2013-03-03 17:52:00,
2013-03-03 09:53:00,42.8,37.4,30.27,NNE,28,0.0,-999.0,81,0.00,,,0.00,88,Wunderground v.1.15,2013-03-03 17:53:00,
2013-03-03 09:54:00,42.8,37.1,30.27,NNE,28,0.0,-999.0,80,0.00,,,0.00,90,Wunderground v.1.15,2013-03-03 17:54:00,
2013-03-03 09:55:00,42.9,37.5,30.27,South,183,0.0,-999.0,81,0.00,,,0.00,97,Wunderground v.1.15,2013-03-03 17:55:00,
2013-03-03 09:58:00,42.9,36.8,30.27,West,276,1.0,-999.0,79,0.00,,,0.00,93,Wunderground v.1.15,2013-03-03 17:58:00,
2013-03-03 09:59:00,42.9,36.8,30.27,ESE,107,1.0,-999.0,79,0.00,,,0.00,93,Wunderground v.1.15,2013-03-03 17:59:00,
2013-03-03 10:00:00,42.9,36.5,30.27,West,276,0.0,-999.0,78,0.00,,,0.00,95,Wunderground v.1.15,2013-03-03 18:00:00,
2013-03-03 10:03:00,42.9,36.5,30.27,West,273,2.0,-999.0,78,0.00,,,0.00,100,Wunderground v.1.15,2013-03-03 18:03:00,
2013-03-03 10:04:00,42.9,36.5,30.27,West,268,2.0,-999.0,78,0.00,,,0.00,106,Wunderground v.1.15,2013-03-03 18:04:00,
2013-03-03 10:06:00,43.1,36.4,30.27,SW,231,1.0,-999.0,77,0.00,,,0.00,113,Wunderground v.1.15,2013-03-03 18:06:00,
2013-03-03 10:08:00,43.1,36.4,30.27,SW,231,0.0,-999.0,77,0.00,,,0.00,118,Wunderground v.1.15,2013-03-03 18:08:00,
2013-03-03 10:09:00,43.1,36.7,30.27,WSW,239,1.0,-999.0,78,0.00,,,0.00,120,Wunderground v.1.15,2013-03-03 18:09:00,
2013-03-03 10:11:00,43.2,36.8,30.27,SSW,197,1.0,-999.0,78,0.00,,,0.00,121,Wunderground v.1.15,2013-03-03 18:11:00,
2013-03-03 10:13:00,43.2,36.5,30.27,West,272,0.0,-999.0,77,0.00,,,0.00,123,Wunderground v.1.15,2013-03-03 18:13:00,
2013-03-03 10:14:00,43.2,36.8,30.27,West,272,0.0,-999.0,78,0.00,,,0.00,121,Wunderground v.1.15,2013-03-03 18:14:00,
2013-03-03 10:16:00,43.4,37.0,30.27,West,272,0.0,-999.0,78,0.00,,,0.00,123,Wunderground v.1.15,2013-03-03 18:16:00,
2013-03-03 10:18:00,43.5,37.4,30.27,NNW,328,2.0,-999.0,79,0.00,,,0.00,130,Wunderground v.1.15,2013-03-03 18:18:00,
2013-03-03 10:19:00,43.5,37.4,30.27,SW,225,0.0,-999.0,79,0.00,,,0.00,132,Wunderground v.1.15,2013-03-03 18:19:00,
2013-03-03 10:23:00,43.7,37.6,30.27,SW,222,0.0,-999.0,79,0.00,,,0.00,132,Wunderground v.1.15,2013-03-03 18:23:00,
2013-03-03 10:24:00,43.7,37.6,30.27,SW,222,0.0,-999.0,79,0.00,,,0.00,132,Wunderground v.1.15,2013-03-03 18:24:00,
2013-03-03 10:25:00,43.8,37.7,30.27,WSW,246,2.0,-999.0,79,0.00,,,0.00,130,Wunderground v.1.15,2013-03-03 18:25:00,
2013-03-03 10:28:00,43.8,37.4,30.27,NW,304,1.0,-999.0,78,0.00,,,0.00,135,Wunderground v.1.15,2013-03-03 18:28:00,
2013-03-03 10:29:00,43.8,37.4,30.27,NNW,340,2.0,-999.0,78,0.00,,,0.00,127,Wunderground v.1.15,2013-03-03 18:29:00,
2013-03-03 10:30:00,43.8,37.4,30.27,SSW,207,1.0,-999.0,78,0.00,,,0.00,120,Wunderground v.1.15,2013-03-03 18:30:00,
2013-03-03 10:33:00,43.9,37.2,30.27,NW,304,0.0,-999.0,77,0.00,,,0.00,118,Wunderground v.1.15,2013-03-03 18:33:00,
2013-03-03 10:34:00,43.9,37.2,30.27,WSW,244,0.0,-999.0,77,0.00,,,0.00,118,Wunderground v.1.15,2013-03-03 18:34:00,
2013-03-03 10:35:00,43.9,37.2,30.27,WSW,241,0.0,-999.0,77,0.00,,,0.00,123,Wunderground v.1.15,2013-03-03 18:35:00,
2013-03-03 10:38:00,43.9,37.2,30.27,West,273,0.0,-999.0,77,0.00,,,0.00,114,Wunderground v.1.15,2013-03-03 18:38:00,
2013-03-03 10:39:00,43.9,36.8,30.27,West,273,0.0,-999.0,76,0.00,,,0.00,114,Wunderground v.1.15,2013-03-03 18:39:00,
2013-03-03 10:40:00,43.9,36.8,30.27,NW,323,1.0,-999.0,76,0.00,,,0.00,118,Wunderground v.1.15,2013-03-03 18:40:00,
2013-03-03 10:44:00,44.1,37.3,30.27,NNE,15,0.0,-999.0,77,0.00,,,0.00,139,Wunderground v.1.15,2013-03-03 18:44:00,
2013-03-03 10:45:00,44.1,37.0,30.27,North,349,0.0,-999.0,76,0.00,,,0.00,137,Wunderground v.1.15,2013-03-03 18:45:00,
2013-03-03 10:49:00,43.9,35.8,30.27,WNW,294,0.0,-999.0,73,0.00,,,0.00,128,Wunderground v.1.15,2013-03-03 18:49:00,
2013-03-03 10:50:00,43.9,36.1,30.27,WNW,294,0.0,-999.0,74,0.00,,,0.00,125,Wunderground v.1.15,2013-03-03 18:50:00,
2013-03-03 10:51:00,44.1,36.3,30.27,West,265,1.0,-999.0,74,0.00,,,0.00,125,Wunderground v.1.15,2013-03-03 18:51:00,
2013-03-03 10:54:00,43.9,35.8,30.27,West,269,0.0,-999.0,73,0.00,,,0.00,116,Wunderground v.1.15,2013-03-03 18:54:00,
2013-03-03 10:55:00,43.9,35.5,30.27,West,269,1.0,-999.0,72,0.00,,,0.00,106,Wunderground v.1.15,2013-03-03 18:55:00,
2013-03-03 10:56:00,43.9,35.5,30.27,WSW,252,0.0,-999.0,72,0.00,,,0.00,97,Wunderground v.1.15,2013-03-03 18:56:00,
2013-03-03 10:59:00,44.1,36.3,30.27,NW,307,0.0,-999.0,74,0.00,,,0.00,93,Wunderground v.1.15,2013-03-03 18:59:00,
2013-03-03 11:00:00,44.1,36.0,30.27,NW,307,0.0,-999.0,73,0.00,,,0.00,106,Wunderground v.1.15,2013-03-03 19:00:00,
2013-03-03 11:01:00,44.1,36.7,30.26,NNW,331,5.0,-999.0,75,0.00,,,0.00,120,Wunderground v.1.15,2013-03-03 19:01:00,
2013-03-03 11:05:00,44.2,37.4,30.26,WSW,251,0.0,-999.0,77,0.00,,,0.00,143,Wunderground v.1.15,2013-03-03 19:05:00,
2013-03-03 11:07:00,44.2,37.8,30.26,West,272,0.0,-999.0,78,0.00,,,0.00,146,Wunderground v.1.15,2013-03-03 19:07:00,
2013-03-03 11:10:00,44.2,36.8,30.26,NNW,344,0.0,-999.0,75,0.00,,,0.00,141,Wunderground v.1.15,2013-03-03 19:10:00,
2013-03-03 11:12:00,44.4,37.0,30.26,NNW,335,0.0,-999.0,75,0.00,,,0.00,148,Wunderground v.1.15,2013-03-03 19:12:00,
2013-03-03 11:15:00,44.4,35.6,30.26,WSW,246,1.0,-999.0,71,0.00,,,0.00,157,Wunderground v.1.15,2013-03-03 19:15:00,
2013-03-03 11:16:00,44.4,35.6,30.26,WSW,248,1.0,-999.0,71,0.00,,,0.00,164,Wunderground v.1.15,2013-03-03 19:16:00,
2013-03-03 11:17:00,44.4,36.3,30.26,WSW,248,1.0,-999.0,73,0.00,,,0.00,172,Wunderground v.1.15,2013-03-03 19:17:00,
2013-03-03 11:20:00,44.5,37.1,30.26,North,9,0.0,-999.0,75,0.00,,,0.00,190,Wunderground v.1.15,2013-03-03 19:20:00,
2013-03-03 11:21:00,44.5,37.1,30.26,North,8,0.0,-999.0,75,0.00,,,0.00,190,Wunderground v.1.15,2013-03-03 19:21:00,
2013-03-03 11:22:00,44.5,36.0,30.26,West,265,1.0,-999.0,72,0.00,,,0.00,188,Wunderground v.1.15,2013-03-03 19:22:00,
2013-03-03 11:23:00,44.5,36.0,30.26,West,265,0.0,-999.0,72,0.00,,,0.00,188,Wunderground v.1.15,2013-03-03 19:23:00,
2013-03-03 11:25:00,44.7,35.5,30.26,NNW,335,0.0,-999.0,70,0.00,,,0.00,174,Wunderground v.1.15,2013-03-03 19:25:00,
2013-03-03 11:26:00,44.7,35.5,30.26,NNW,335,0.0,-999.0,70,0.00,,,0.00,174,Wunderground v.1.15,2013-03-03 19:26:00,
2013-03-03 11:27:00,44.7,35.9,30.26,NW,309,3.0,-999.0,71,0.00,,,0.00,157,Wunderground v.1.15,2013-03-03 19:27:00,
2013-03-03 11:28:00,44.7,35.9,30.26,WNW,289,0.0,-999.0,71,0.00,,,0.00,157,Wunderground v.1.15,2013-03-03 19:28:00,
2013-03-03 11:31:00,44.8,35.6,30.26,WSW,252,0.0,-999.0,70,0.00,,,0.00,91,Wunderground v.1.15,2013-03-03 19:31:00,
2013-03-03 11:33:00,44.8,35.2,30.26,SW,225,1.0,-999.0,69,0.00,,,0.00,76,Wunderground v.1.15,2013-03-03 19:33:00,
2013-03-03 11:36:00,44.8,35.2,30.26,SW,227,0.0,-999.0,69,0.00,,,0.00,48,Wunderground v.1.15,2013-03-03 19:36:00,
2013-03-03 11:38:00,44.8,36.0,30.26,NW,323,0.0,-999.0,71,0.00,,,0.00,49,Wunderground v.1.15,2013-03-03 19:38:00,
2013-03-03 11:41:00,44.7,35.9,30.26,North,354,0.0,-999.0,71,0.00,,,0.00,65,Wunderground v.1.15,2013-03-03 19:41:00,
2013-03-03 11:42:00,44.7,35.9,30.26,North,354,1.0,-999.0,71,0.00,,,0.00,69,Wunderground v.1.15,2013-03-03 19:42:00,
2013-03-03 11:43:00,44.7,35.9,30.26,North,354,0.0,-999.0,71,0.00,,,0.00,69,Wunderground v.1.15,2013-03-03 19:43:00,
2013-03-03 11:46:00,44.7,36.2,30.27,SSW,197,0.0,-999.0,72,0.00,,,0.00,48,Wunderground v.1.15,2013-03-03 19:46:00,
2013-03-03 11:47:00,44.7,36.6,30.27,SSW,197,0.0,-999.0,73,0.00,,,0.00,42,Wunderground v.1.15,2013-03-03 19:47:00,
2013-03-03 11:48:00,44.5,36.4,30.27,North,357,0.0,-999.0,73,0.00,,,0.00,37,Wunderground v.1.15,2013-03-03 19:48:00,
2013-03-03 11:51:00,44.4,35.9,30.27,North,357,0.0,-999.0,72,0.00,,,0.00,30,Wunderground v.1.15,2013-03-03 19:51:00,
2013-03-03 11:52:00,44.4,35.9,30.27,North,357,0.0,-999.0,72,0.00,,,0.00,30,Wunderground v.1.15,2013-03-03 19:52:00,
2013-03-03 11:54:00,44.2,35.7,30.27,North,357,0.0,-999.0,72,0.00,,,0.00,37,Wunderground v.1.15,2013-03-03 19:54:00,
2013-03-03 11:56:00,44.1,36.0,30.27,North,2,0.0,-999.0,73,0.00,,,0.00,53,Wunderground v.1.15,2013-03-03 19:56:00,
2013-03-03 11:57:00,44.1,36.3,30.27,North,2,0.0,-999.0,74,0.00,,,0.00,53,Wunderground v.1.15,2013-03-03 19:57:00,
2013-03-03 11:59:00,44.1,36.3,30.27,NNW,340,0.0,-999.0,74,0.00,,,0.00,53,Wunderground v.1.15,2013-03-03 19:59:00,
2013-03-03 12:02:00,43.9,36.5,30.27,NNW,340,0.0,-999.0,75,0.00,,,0.00,55,Wunderground v.1.15,2013-03-03 20:02:00,
2013-03-03 12:03:00,43.9,36.1,30.27,NW,323,0.0,-999.0,74,0.00,,,0.00,55,Wunderground v.1.15,2013-03-03 20:03:00,
2013-03-03 12:04:00,43.8,36.0,30.27,NW,323,0.0,-999.0,74,0.00,,,0.00,55,Wunderground v.1.15,2013-03-03 20:04:00,
2013-03-03 12:07:00,43.8,36.0,30.27,West,276,0.0,-999.0,74,0.00,,,0.00,53,Wunderground v.1.15,2013-03-03 20:07:00,
2013-03-03 12:08:00,43.8,36.0,30.27,West,276,0.0,-999.0,74,0.00,,,0.00,53,Wunderground v.1.15,2013-03-03 20:08:00,
2013-03-03 12:09:00,43.8,36.4,30.27,WNW,282,1.0,-999.0,75,0.00,,,0.00,67,Wunderground v.1.15,2013-03-03 20:09:00,
2013-03-03 12:12:00,43.8,36.4,30.27,NNW,334,0.0,-999.0,75,0.00,,,0.00,62,Wunderground v.1.15,2013-03-03 20:12:00,
2013-03-03 12:13:00,43.7,36.3,30.27,NNW,334,0.0,-999.0,75,0.00,,,0.00,63,Wunderground v.1.15,2013-03-03 20:13:00,
2013-03-03 12:14:00,43.7,36.6,30.27,NE,36,0.0,-999.0,76,0.00,,,0.01,69,Wunderground v.1.15,2013-03-03 20:14:00,
2013-03-03 12:15:00,43.7,36.6,30.27,NE,36,0.0,-999.0,76,0.00,,,0.01,69,Wunderground v.1.15,2013-03-03 20:15:00,
2013-03-03 12:17:00,43.7,37.0,30.27,NNW,335,0.0,-999.0,77,0.00,,,0.01,69,Wunderground v.1.15,2013-03-03 20:17:00,
2013-03-03 12:18:00,43.7,37.0,30.27,NNW,334,0.0,-999.0,77,0.00,,,0.01,67,Wunderground v.1.15,2013-03-03 20:18:00,
2013-03-03 12:20:00,43.7,37.3,30.27,NNW,334,0.0,-999.0,78,0.00,,,0.01,69,Wunderground v.1.15,2013-03-03 20:20:00,
2013-03-03 12:22:00,43.5,37.1,30.27,NNW,334,0.0,-999.0,78,0.00,,,0.01,70,Wunderground v.1.15,2013-03-03 20:22:00,
2013-03-03 12:23:00,43.5,37.4,30.27,NNW,334,0.0,-999.0,79,0.00,,,0.01,70,Wunderground v.1.15,2013-03-03 20:23:00,
2013-03-03 12:25:00,43.5,37.4,30.27,NNW,334,0.0,-999.0,79,0.00,,,0.01,69,Wunderground v.1.15,2013-03-03 20:25:00,
2013-03-03 12:28:00,43.4,37.6,30.27,NNW,334,0.0,-999.0,80,0.00,,,0.01,72,Wunderground v.1.15,2013-03-03 20:28:00,
2013-03-03 12:29:00,43.4,38.0,30.27,NNW,334,0.0,-999.0,81,0.00,,,0.01,76,Wunderground v.1.15,2013-03-03 20:29:00,
2013-03-03 12:30:00,43.4,38.0,30.27,NNW,334,0.0,-999.0,81,0.00,,,0.01,74,Wunderground v.1.15,2013-03-03 20:30:00,
2013-03-03 12:33:00,43.2,38.1,30.27,NNW,334,0.0,-999.0,82,0.00,,,0.01,74,Wunderground v.1.15,2013-03-03 20:33:00,
2013-03-03 12:34:00,43.2,38.1,30.27,NNW,334,0.0,-999.0,82,0.00,,,0.01,74,Wunderground v.1.15,2013-03-03 20:34:00,
2013-03-03 12:35:00,43.2,38.1,30.27,NNW,334,0.0,-999.0,82,0.00,,,0.01,69,Wunderground v.1.15,2013-03-03 20:35:00,
2013-03-03 12:36:00,43.2,38.1,30.27,NNW,334,0.0,-999.0,82,0.00,,,0.01,72,Wunderground v.1.15,2013-03-03 20:36:00,
2013-03-03 12:38:00,43.1,37.7,30.27,NNW,334,0.0,-999.0,81,0.00,,,0.01,77,Wunderground v.1.15,2013-03-03 20:38:00,
2013-03-03 12:39:00,43.1,38.0,30.27,NNW,334,0.0,-999.0,82,0.00,,,0.01,76,Wunderground v.1.15,2013-03-03 20:39:00,
2013-03-03 12:40:00,43.1,38.0,30.27,NNW,334,0.0,-999.0,82,0.00,,,0.01,72,Wunderground v.1.15,2013-03-03 20:40:00,
2013-03-03 12:42:00,43.1,38.3,30.27,NNW,334,0.0,-999.0,83,0.00,,,0.01,69,Wunderground v.1.15,2013-03-03 20:42:00,
2013-03-03 12:44:00,43.1,38.3,30.27,NNW,334,0.0,-999.0,83,0.00,,,0.01,58,Wunderground v.1.15,2013-03-03 20:44:00,
2013-03-03 12:46:00,42.9,37.8,30.28,NNW,334,0.0,-999.0,82,0.00,,,0.01,55,Wunderground v.1.15,2013-03-03 20:46:00,
2013-03-03 12:47:00,42.8,37.4,30.28,NNW,334,0.0,-999.0,81,0.00,,,0.01,51,Wunderground v.1.15,2013-03-03 20:47:00,
2013-03-03 12:49:00,42.8,37.4,30.28,NNW,334,0.0,-999.0,81,0.00,,,0.01,46,Wunderground v.1.15,2013-03-03 20:49:00,
2013-03-03 12:50:00,42.7,37.3,30.28,NNW,334,0.0,-999.0,81,0.00,,,0.01,48,Wunderground v.1.15,2013-03-03 20:50:00,
2013-03-03 12:51:00,42.7,37.3,30.28,NNW,334,0.0,-999.0,81,0.00,,,0.01,56,Wunderground v.1.15,2013-03-03 20:51:00,
2013-03-03 12:52:00,42.5,37.4,30.28,NW,325,0.0,-999.0,82,0.00,,,0.01,70,Wunderground v.1.15,2013-03-03 20:52:00,
2013-03-03 12:54:00,42.4,37.0,30.28,NW,325,0.0,-999.0,81,0.00,,,0.01,81,Wunderground v.1.15,2013-03-03 20:54:00,
2013-03-03 12:55:00,42.4,37.0,30.28,NW,325,0.0,-999.0,81,0.00,,,0.01,81,Wunderground v.1.15,2013-03-03 20:55:00,
2013-03-03 12:56:00,42.4,37.3,30.28,NW,325,0.0,-999.0,82,0.00,,,0.01,84,Wunderground v.1.15,2013-03-03 20:56:00,
2013-03-03 12:57:00,42.2,37.1,30.28,NW,325,0.0,-999.0,82,0.00,,,0.01,81,Wunderground v.1.15,2013-03-03 20:57:00,
2013-03-03 13:00:00,42.1,37.0,30.28,NW,325,0.0,-999.0,82,0.00,,,0.01,91,Wunderground v.1.15,2013-03-03 21:00:00,
2013-03-03 13:01:00,42.1,37.0,30.28,NW,325,0.0,-999.0,82,0.00,,,0.01,100,Wunderground v.1.15,2013-03-03 21:01:00,
2013-03-03 13:02:00,41.9,36.5,30.28,NW,325,0.0,-999.0,81,0.00,,,0.01,100,Wunderground v.1.15,2013-03-03 21:02:00,
2013-03-03 13:05:00,41.9,36.8,30.28,NW,325,0.0,-999.0,82,0.00,,,0.01,84,Wunderground v.1.15,2013-03-03 21:05:00,
2013-03-03 13:07:00,41.9,36.8,30.28,NW,325,0.0,-999.0,82,0.00,,,0.01,65,Wunderground v.1.15,2013-03-03 21:07:00,
2013-03-03 13:08:00,41.8,36.7,30.28,NW,325,0.0,-999.0,82,0.00,,,0.01,62,Wunderground v.1.15,2013-03-03 21:08:00,
2013-03-03 13:10:00,41.8,36.7,30.28,NW,325,0.0,-999.0,82,0.00,,,0.01,67,Wunderground v.1.15,2013-03-03 21:10:00,
2013-03-03 13:11:00,41.8,36.7,30.28,NW,325,0.0,-999.0,82,0.00,,,0.01,67,Wunderground v.1.15,2013-03-03 21:11:00,
2013-03-03 13:12:00,41.8,37.0,30.28,NW,325,0.0,-999.0,83,0.00,,,0.01,62,Wunderground v.1.15,2013-03-03 21:12:00,
2013-03-03 13:13:00,41.8,37.0,30.28,NW,325,0.0,-999.0,83,0.00,,,0.01,60,Wunderground v.1.15,2013-03-03 21:13:00,
2013-03-03 13:16:00,41.8,37.3,30.28,NW,325,0.0,-999.0,84,0.00,,,0.01,86,Wunderground v.1.15,2013-03-03 21:16:00,
2013-03-03 13:17:00,41.8,37.3,30.28,NW,325,0.0,-999.0,84,0.00,,,0.01,88,Wunderground v.1.15,2013-03-03 21:17:00,
2013-03-03 13:18:00,41.8,37.3,30.28,NW,325,0.0,-999.0,84,0.00,,,0.01,88,Wunderground v.1.15,2013-03-03 21:18:00,
2013-03-03 13:21:00,41.8,37.3,30.28,NW,325,0.0,-999.0,84,0.00,,,0.01,84,Wunderground v.1.15,2013-03-03 21:21:00,
2013-03-03 13:22:00,41.8,37.3,30.28,NW,325,0.0,-999.0,84,0.00,,,0.01,90,Wunderground v.1.15,2013-03-03 21:22:00,
2013-03-03 13:23:00,41.8,37.3,30.28,NW,325,0.0,-999.0,84,0.00,,,0.01,88,Wunderground v.1.15,2013-03-03 21:23:00,
2013-03-03 13:26:00,41.8,37.6,30.28,NW,325,0.0,-999.0,85,0.00,,,0.01,160,Wunderground v.1.15,2013-03-03 21:26:00,
2013-03-03 13:27:00,41.9,37.7,30.28,NW,325,0.0,-999.0,85,0.00,,,0.01,160,Wunderground v.1.15,2013-03-03 21:27:00,
2013-03-03 13:28:00,41.9,38.0,30.28,NW,325,0.0,-999.0,86,0.00,,,0.01,134,Wunderground v.1.15,2013-03-03 21:28:00,
2013-03-03 13:32:00,41.9,37.4,30.28,NW,325,0.0,-999.0,84,0.00,,,0.01,162,Wunderground v.1.15,2013-03-03 21:32:00,
2013-03-03 13:33:00,41.9,37.4,30.28,NW,325,0.0,-999.0,84,0.00,,,0.01,178,Wunderground v.1.15,2013-03-03 21:33:00,
2013-03-03 13:34:00,41.9,37.4,30.28,NW,325,0.0,-999.0,84,0.00,,,0.01,174,Wunderground v.1.15,2013-03-03 21:34:00,
2013-03-03 13:37:00,42.1,37.9,30.28,NW,325,0.0,-999.0,85,0.00,,,0.01,137,Wunderground v.1.15,2013-03-03 21:37:00,
2013-03-03 13:38:00,42.1,37.9,30.28,NW,325,0.0,-999.0,85,0.00,,,0.01,137,Wunderground v.1.15,2013-03-03 21:38:00,
2013-03-03 13:39:00,42.2,38.0,30.28,NW,325,0.0,-999.0,85,0.00,,,0.01,143,Wunderground v.1.15,2013-03-03 21:39:00,
2013-03-03 13:42:00,42.5,38.3,30.28,ENE,71,0.0,-999.0,85,0.00,,,0.01,155,Wunderground v.1.15,2013-03-03 21:42:00,
2013-03-03 13:44:00,42.5,38.0,30.28,ENE,71,0.0,-999.0,84,0.00,,,0.01,146,Wunderground v.1.15,2013-03-03 21:44:00,
2013-03-03 13:47:00,42.8,38.3,30.28,ENE,71,0.0,-999.0,84,0.00,,,0.01,151,Wunderground v.1.15,2013-03-03 21:47:00,
2013-03-03 13:49:00,42.8,38.0,30.28,WNW,287,0.0,-999.0,83,0.00,,,0.01,151,Wunderground v.1.15,2013-03-03 21:49:00,
2013-03-03 13:50:00,42.8,38.0,30.28,WNW,287,0.0,-999.0,83,0.00,,,0.01,151,Wunderground v.1.15,2013-03-03 21:50:00,
2013-03-03 13:53:00,43.1,38.0,30.28,NW,317,1.0,-999.0,82,0.00,,,0.01,172,Wunderground v.1.15,2013-03-03 21:53:00,
2013-03-03 13:54:00,43.1,37.7,30.28,NW,311,0.0,-999.0,81,0.00,,,0.01,183,Wunderground v.1.15,2013-03-03 21:54:00,
2013-03-03 13:55:00,43.1,37.7,30.28,NW,311,0.0,-999.0,81,0.00,,,0.01,188,Wunderground v.1.15,2013-03-03 21:55:00,
2013-03-03 13:58:00,43.2,37.1,30.28,NW,311,0.0,-999.0,79,0.00,,,0.01,181,Wunderground v.1.15,2013-03-03 21:58:00,
2013-03-03 14:00:00,43.4,37.0,30.28,NW,311,0.0,-999.0,78,0.00,,,0.01,172,Wunderground v.1.15,2013-03-03 22:00:00,
2013-03-03 14:03:00,43.7,37.6,30.27,NW,311,0.0,-999.0,79,0.00,,,0.01,143,Wunderground v.1.15,2013-03-03 22:03:00,
2013-03-03 14:05:00,43.8,37.7,30.27,NW,311,0.0,-999.0,79,0.00,,,0.01,123,Wunderground v.1.15,2013-03-03 22:05:00,
2013-03-03 14:06:00,43.9,37.8,30.27,NW,311,0.0,-999.0,79,0.00,,,0.01,113,Wunderground v.1.15,2013-03-03 22:06:00,
2013-03-03 14:08:00,43.9,37.5,30.27,NW,311,0.0,-999.0,78,0.00,,,0.01,113,Wunderground v.1.15,2013-03-03 22:08:00,
2013-03-03 14:10:00,44.1,37.0,30.27,NW,311,0.0,-999.0,76,0.00,,,0.01,139,Wunderground v.1.15,2013-03-03 22:10:00,
2013-03-03 14:11:00,44.1,36.7,30.27,NW,311,0.0,-999.0,75,0.00,,,0.01,151,Wunderground v.1.15,2013-03-03 22:11:00,
2013-03-03 14:13:00,44.1,36.7,30.27,NW,311,0.0,-999.0,75,0.00,,,0.01,153,Wunderground v.1.15,2013-03-03 22:13:00,
2013-03-03 14:15:00,44.2,37.4,30.28,NW,311,0.0,-999.0,77,0.00,,,0.01,162,Wunderground v.1.15,2013-03-03 22:15:00,
2013-03-03 14:18:00,44.4,37.3,30.28,NNE,16,0.0,-999.0,76,0.00,,,0.01,188,Wunderground v.1.15,2013-03-03 22:18:00,
2013-03-03 14:20:00,44.5,36.4,30.28,West,261,0.0,-999.0,73,0.00,,,0.01,273,Wunderground v.1.15,2013-03-03 22:20:00,
2013-03-03 14:21:00,44.5,36.4,30.28,West,261,0.0,-999.0,73,0.00,,,0.01,273,Wunderground v.1.15,2013-03-03 22:21:00,
2013-03-03 14:23:00,44.7,36.9,30.28,West,261,0.0,-999.0,74,0.00,,,0.01,273,Wunderground v.1.15,2013-03-03 22:23:00,
2013-03-03 14:24:00,44.7,36.9,30.28,West,261,0.0,-999.0,74,0.00,,,0.01,76,Wunderground v.1.15,2013-03-03 22:24:00,
2013-03-03 14:26:00,44.8,36.3,30.28,West,261,0.0,-999.0,72,0.00,,,0.01,79,Wunderground v.1.15,2013-03-03 22:26:00,
2013-03-03 14:28:00,44.7,34.8,30.28,NNW,333,0.0,-999.0,68,0.00,,,0.01,79,Wunderground v.1.15,2013-03-03 22:28:00,
2013-03-03 14:29:00,44.7,34.8,30.28,NNW,333,0.0,-999.0,68,0.00,,,0.01,81,Wunderground v.1.15,2013-03-03 22:29:00,
2013-03-03 14:31:00,44.8,36.0,30.28,NNW,333,0.0,-999.0,71,0.00,,,0.01,84,Wunderground v.1.15,2013-03-03 22:31:00,
2013-03-03 14:33:00,44.8,36.0,30.28,NNW,333,0.0,-999.0,71,0.00,,,0.01,81,Wunderground v.1.15,2013-03-03 22:33:00,
2013-03-03 14:34:00,44.8,36.0,30.28,NNW,333,0.0,-999.0,71,0.00,,,0.01,84,Wunderground v.1.15,2013-03-03 22:34:00,
2013-03-03 14:37:00,44.8,35.2,30.28,NNW,333,0.0,-999.0,69,0.00,,,0.01,106,Wunderground v.1.15,2013-03-03 22:37:00,
2013-03-03 14:38:00,44.8,35.2,30.28,NNW,333,0.0,-999.0,69,0.00,,,0.01,113,Wunderground v.1.15,2013-03-03 22:38:00,
2013-03-03 14:39:00,44.8,35.6,30.28,NNW,333,0.0,-999.0,70,0.00,,,0.01,118,Wunderground v.1.15,2013-03-03 22:39:00,
2013-03-03 14:42:00,44.8,34.9,30.28,NNW,333,0.0,-999.0,68,0.00,,,0.01,125,Wunderground v.1.15,2013-03-03 22:42:00,
2013-03-03 14:43:00,44.8,34.5,30.28,NNW,333,0.0,-999.0,67,0.00,,,0.01,113,Wunderground v.1.15,2013-03-03 22:43:00,
2013-03-03 14:45:00,44.8,34.1,30.28,NNW,333,0.0,-999.0,66,0.00,,,0.01,95,Wunderground v.1.15,2013-03-03 22:45:00,
2013-03-03 14:47:00,44.8,34.1,30.28,NNW,333,0.0,-999.0,66,0.00,,,0.01,84,Wunderground v.1.15,2013-03-03 22:47:00,
2013-03-03 14:49:00,44.9,35.0,30.28,NNW,333,0.0,-999.0,68,0.00,,,0.01,91,Wunderground v.1.15,2013-03-03 22:49:00,
2013-03-03 14:50:00,44.9,35.3,30.28,NNW,333,0.0,-999.0,69,0.00,,,0.01,95,Wunderground v.1.15,2013-03-03 22:50:00,
2013-03-03 14:52:00,44.9,34.6,30.28,NNW,333,0.0,-999.0,67,0.00,,,0.01,95,Wunderground v.1.15,2013-03-03 22:52:00,
2013-03-03 14:54:00,44.9,35.0,30.28,NNW,333,0.0,-999.0,68,0.00,,,0.01,93,Wunderground v.1.15,2013-03-03 22:54:00,
2013-03-03 14:55:00,44.9,34.6,30.28,NNW,333,0.0,-999.0,67,0.00,,,0.01,90,Wunderground v.1.15,2013-03-03 22:55:00,
2013-03-03 14:57:00,44.9,34.2,30.28,NW,318,0.0,-999.0,66,0.00,,,0.01,107,Wunderground v.1.15,2013-03-03 22:57:00,
2013-03-03 14:58:00,44.9,34.2,30.28,NW,318,0.0,-999.0,66,0.00,,,0.01,107,Wunderground v.1.15,2013-03-03 22:58:00,
2013-03-03 14:59:00,44.9,33.8,30.28,NW,318,0.0,-999.0,65,0.00,,,0.01,97,Wunderground v.1.15,2013-03-03 22:59:00,
2013-03-03 15:00:00,44.9,33.8,30.28,NW,318,0.0,-999.0,65,0.00,,,0.01,123,Wunderground v.1.15,2013-03-03 23:00:00,
2013-03-03 15:02:00,45.1,34.4,30.28,NW,318,0.0,-999.0,66,0.00,,,0.01,125,Wunderground v.1.15,2013-03-03 23:02:00,
2013-03-03 15:03:00,45.1,34.4,30.28,NW,318,0.0,-999.0,66,0.00,,,0.01,111,Wunderground v.1.15,2013-03-03 23:03:00,
2013-03-03 15:04:00,45.1,34.8,30.28,NW,318,0.0,-999.0,67,0.00,,,0.01,139,Wunderground v.1.15,2013-03-03 23:04:00,
2013-03-03 15:05:00,45.2,35.3,30.28,NW,318,0.0,-999.0,68,0.00,,,0.01,123,Wunderground v.1.15,2013-03-03 23:05:00,
2013-03-03 15:08:00,45.2,33.7,30.28,NW,318,0.0,-999.0,64,0.00,,,0.01,132,Wunderground v.1.15,2013-03-03 23:08:00,
2013-03-03 15:09:00,45.2,33.7,30.28,NW,318,0.0,-999.0,64,0.00,,,0.01,125,Wunderground v.1.15,2013-03-03 23:09:00,
2013-03-03 15:10:00,45.2,33.3,30.28,NW,318,0.0,-999.0,63,0.00,,,0.01,125,Wunderground v.1.15,2013-03-03 23:10:00,
2013-03-03 15:11:00,45.2,33.3,30.28,NW,318,0.0,-999.0,63,0.00,,,0.01,125,Wunderground v.1.15,2013-03-03 23:11:00,
2013-03-03 15:13:00,45.4,33.9,30.28,NW,318,0.0,-999.0,64,0.00,,,0.01,121,Wunderground v.1.15,2013-03-03 23:13:00,
2013-03-03 15:15:00,45.4,33.9,30.28,NW,318,0.0,-999.0,64,0.00,,,0.01,116,Wunderground v.1.15,2013-03-03 23:15:00,
2013-03-03 15:16:00,45.4,33.9,30.28,NW,318,0.0,-999.0,64,0.00,,,0.01,109,Wunderground v.1.15,2013-03-03 23:16:00,
2013-03-03 15:18:00,45.5,33.6,30.28,NW,318,0.0,-999.0,63,0.00,,,0.01,83,Wunderground v.1.15,2013-03-03 23:18:00,
2013-03-03 15:19:00,45.5,34.0,30.28,NW,318,0.0,-999.0,64,0.00,,,0.01,76,Wunderground v.1.15,2013-03-03 23:19:00,
2013-03-03 15:20:00,45.5,34.0,30.28,NW,318,0.0,-999.0,64,0.00,,,0.01,76,Wunderground v.1.15,2013-03-03 23:20:00,
2013-03-03 15:21:00,45.5,34.0,30.28,NW,318,0.0,-999.0,64,0.00,,,0.01,67,Wunderground v.1.15,2013-03-03 23:21:00,
2013-03-03 15:24:00,45.5,35.2,30.28,NW,318,0.0,-999.0,67,0.00,,,0.01,55,Wunderground v.1.15,2013-03-03 23:24:00,
2013-03-03 15:26:00,45.5,35.2,30.28,NW,318,0.0,-999.0,67,0.00,,,0.01,33,Wunderground v.1.15,2013-03-03 23:26:00,
2013-03-03 15:29:00,45.5,35.2,30.28,NW,318,0.0,-999.0,67,0.00,,,0.01,55,Wunderground v.1.15,2013-03-03 23:29:00,
2013-03-03 15:30:00,45.5,35.2,30.28,NW,318,0.0,-999.0,67,0.00,,,0.01,53,Wunderground v.1.15,2013-03-03 23:30:00,
2013-03-03 15:31:00,45.4,35.1,30.28,NW,320,0.0,-999.0,67,0.00,,,0.01,55,Wunderground v.1.15,2013-03-03 23:31:00,
2013-03-03 15:32:00,45.4,35.1,30.28,NW,320,0.0,-999.0,67,0.00,,,0.01,55,Wunderground v.1.15,2013-03-03 23:32:00,
2013-03-03 15:34:00,45.4,35.1,30.28,NW,320,0.0,-999.0,67,0.00,,,0.01,58,Wunderground v.1.15,2013-03-03 23:34:00,
2013-03-03 15:35:00,45.4,35.1,30.28,NW,320,0.0,-999.0,67,0.00,,,0.01,58,Wunderground v.1.15,2013-03-03 23:35:00,
2013-03-03 15:37:00,45.2,34.9,30.28,NW,320,0.0,-999.0,67,0.00,,,0.01,56,Wunderground v.1.15,2013-03-03 23:37:00,
2013-03-03 15:39:00,45.2,34.9,30.28,NW,320,0.0,-999.0,67,0.00,,,0.01,48,Wunderground v.1.15,2013-03-03 23:39:00,
2013-03-03 15:40:00,45.2,34.9,30.28,NW,320,0.0,-999.0,67,0.00,,,0.01,49,Wunderground v.1.15,2013-03-03 23:40:00,
2013-03-03 15:42:00,45.2,34.9,30.28,NW,318,0.0,-999.0,67,0.00,,,0.01,46,Wunderground v.1.15,2013-03-03 23:42:00,
2013-03-03 15:44:00,45.1,34.8,30.28,NW,320,0.0,-999.0,67,0.00,,,0.01,42,Wunderground v.1.15,2013-03-03 23:44:00,
2013-03-03 15:45:00,45.1,34.8,30.28,NW,318,0.0,-999.0,67,0.00,,,0.01,25,Wunderground v.1.15,2013-03-03 23:45:00,
2013-03-03 15:47:00,45.1,34.4,30.28,NW,320,0.0,-999.0,66,0.00,,,0.01,23,Wunderground v.1.15,2013-03-03 23:47:00,
2013-03-03 15:50:00,44.9,33.8,30.28,NW,320,0.0,-999.0,65,0.00,,,0.01,30,Wunderground v.1.15,2013-03-03 23:50:00,
2013-03-03 15:51:00,44.9,34.2,30.28,NW,318,0.0,-999.0,66,0.00,,,0.01,30,Wunderground v.1.15,2013-03-03 23:51:00,
2013-03-03 15:52:00,44.9,33.8,30.28,NW,318,0.0,-999.0,65,0.00,,,0.01,30,Wunderground v.1.15,2013-03-03 23:52:00,
2013-03-03 15:53:00,44.9,33.8,30.28,NW,320,0.0,-999.0,65,0.00,,,0.01,30,Wunderground v.1.15,2013-03-03 23:53:00,
2013-03-03 15:56:00,44.8,33.7,30.28,NW,318,0.0,-999.0,65,0.00,,,0.01,35,Wunderground v.1.15,2013-03-03 23:56:00,
2013-03-03 15:58:00,44.8,33.7,30.28,NW,320,0.0,-999.0,65,0.00,,,0.01,35,Wunderground v.1.15,2013-03-03 23:58:00,
2013-03-03 16:01:00,44.8,34.1,30.28,NW,320,0.0,-999.0,66,0.00,,,0.01,35,Wunderground v.1.15,2013-03-04 00:01:00,
2013-03-03 16:03:00,44.7,34.4,30.28,NW,320,0.0,-999.0,67,0.00,,,0.01,26,Wunderground v.1.15,2013-03-04 00:03:00,
2013-03-03 16:06:00,44.7,33.6,30.28,NW,320,0.0,-999.0,65,0.00,,,0.01,18,Wunderground v.1.15,2013-03-04 00:06:00,
2013-03-03 16:07:00,44.7,33.3,30.28,NW,318,0.0,-999.0,64,0.00,,,0.01,18,Wunderground v.1.15,2013-03-04 00:07:00,
2013-03-03 16:08:00,44.7,33.6,30.28,NW,318,0.0,-999.0,65,0.00,,,0.01,18,Wunderground v.1.15,2013-03-04 00:08:00,
2013-03-03 16:09:00,44.7,34.0,30.28,NW,320,0.0,-999.0,66,0.00,,,0.01,18,Wunderground v.1.15,2013-03-04 00:09:00,
2013-03-03 16:12:00,44.5,34.6,30.28,NW,318,0.0,-999.0,68,0.00,,,0.01,11,Wunderground v.1.15,2013-03-04 00:12:00,
2013-03-03 16:14:00,44.5,34.2,30.28,NW,320,0.0,-999.0,67,0.00,,,0.01,23,Wunderground v.1.15,2013-03-04 00:14:00,
2013-03-03 16:15:00,44.5,33.8,30.28,NW,320,0.0,-999.0,66,0.00,,,0.01,23,Wunderground v.1.15,2013-03-04 00:15:00,
2013-03-03 16:17:00,44.5,34.2,30.28,NW,320,0.0,-999.0,67,0.00,,,0.01,23,Wunderground v.1.15,2013-03-04 00:17:00,
2013-03-03 16:19:00,44.4,34.1,30.28,NW,320,0.0,-999.0,67,0.00,,,0.01,26,Wunderground v.1.15,2013-03-04 00:19:00,
2013-03-03 16:20:00,44.4,33.7,30.28,NW,320,0.0,-999.0,66,0.00,,,0.01,26,Wunderground v.1.15,2013-03-04 00:20:00,
2013-03-03 16:23:00,44.4,33.7,30.28,NW,320,0.0,-999.0,66,0.00,,,0.01,25,Wunderground v.1.15,2013-03-04 00:23:00,
2013-03-03 16:24:00,44.4,33.7,30.28,NW,320,0.0,-999.0,66,0.00,,,0.01,25,Wunderground v.1.15,2013-03-04 00:24:00,
2013-03-03 16:26:00,44.2,33.6,30.28,NW,320,0.0,-999.0,66,0.00,,,0.01,25,Wunderground v.1.15,2013-03-04 00:26:00,
2013-03-03 16:29:00,44.2,33.9,30.28,NW,320,0.0,-999.0,67,0.00,,,0.01,23,Wunderground v.1.15,2013-03-04 00:29:00,
2013-03-03 16:31:00,44.2,33.9,30.28,NW,320,0.0,-999.0,67,0.00,,,0.01,21,Wunderground v.1.15,2013-03-04 00:31:00,
2013-03-03 16:34:00,44.1,33.8,30.28,NW,320,0.0,-999.0,67,0.00,,,0.01,21,Wunderground v.1.15,2013-03-04 00:34:00,
2013-03-03 16:35:00,44.1,34.2,30.28,NW,320,0.0,-999.0,68,0.00,,,0.01,21,Wunderground v.1.15,2013-03-04 00:35:00,
2013-03-03 16:37:00,43.9,34.0,30.28,NW,320,0.0,-999.0,68,0.00,,,0.01,21,Wunderground v.1.15,2013-03-04 00:37:00,
2013-03-03 16:39:00,43.9,34.0,30.28,NW,320,0.0,-999.0,68,0.00,,,0.01,19,Wunderground v.1.15,2013-03-04 00:39:00,
2013-03-03 16:40:00,43.9,34.0,30.28,NW,320,0.0,-999.0,68,0.00,,,0.01,19,Wunderground v.1.15,2013-03-04 00:40:00,
2013-03-03 16:42:00,43.9,34.0,30.28,NW,320,0.0,-999.0,68,0.00,,,0.01,19,Wunderground v.1.15,2013-03-04 00:42:00,
2013-03-03 16:45:00,43.7,33.1,30.28,NW,320,0.0,-999.0,66,0.00,,,0.01,19,Wunderground v.1.15,2013-03-04 00:45:00,
2013-03-03 16:47:00,43.7,34.2,30.28,NW,320,0.0,-999.0,69,0.00,,,0.01,19,Wunderground v.1.15,2013-03-04 00:47:00,
2013-03-03 16:50:00,43.5,34.4,30.28,NW,320,0.0,-999.0,70,0.00,,,0.01,18,Wunderground v.1.15,2013-03-04 00:50:00,
2013-03-03 16:52:00,43.5,34.4,30.28,NW,320,0.0,-999.0,70,0.00,,,0.01,16,Wunderground v.1.15,2013-03-04 00:52:00,
2013-03-03 16:55:00,43.2,34.1,30.28,NW,320,0.0,-999.0,70,0.00,,,0.01,16,Wunderground v.1.15,2013-03-04 00:55:00,
2013-03-03 16:56:00,43.2,34.1,30.28,NW,320,0.0,-999.0,70,0.00,,,0.01,16,Wunderground v.1.15,2013-03-04 00:56:00,
2013-03-03 16:57:00,43.2,34.4,30.28,NW,320,0.0,-999.0,71,0.00,,,0.01,16,Wunderground v.1.15,2013-03-04 00:57:00,
2013-03-03 17:00:00,43.1,34.3,30.29,NW,320,0.0,-999.0,71,0.00,,,0.01,12,Wunderground v.1.15,2013-03-04 01:00:00,
2013-03-03 17:01:00,43.1,34.3,30.29,NW,320,0.0,-999.0,71,0.00,,,0.01,12,Wunderground v.1.15,2013-03-04 01:01:00,
2013-03-03 17:02:00,42.9,34.5,30.29,NW,320,0.0,-999.0,72,0.00,,,0.01,12,Wunderground v.1.15,2013-03-04 01:02:00,
2013-03-03 17:03:00,42.9,34.5,30.29,NW,320,0.0,-999.0,72,0.00,,,0.01,12,Wunderground v.1.15,2013-03-04 01:03:00,
2013-03-03 17:06:00,42.8,34.0,30.29,NW,320,0.0,-999.0,71,0.00,,,0.01,9,Wunderground v.1.15,2013-03-04 01:06:00,
2013-03-03 17:07:00,42.7,34.3,30.29,NW,320,0.0,-999.0,72,0.00,,,0.01,9,Wunderground v.1.15,2013-03-04 01:07:00,
2013-03-03 17:08:00,42.7,34.3,30.29,NW,320,0.0,-999.0,72,0.00,,,0.01,12,Wunderground v.1.15,2013-03-04 01:08:00,
2013-03-03 17:11:00,42.4,34.4,30.29,NW,320,0.0,-999.0,73,0.00,,,0.01,12,Wunderground v.1.15,2013-03-04 01:11:00,
2013-03-03 17:14:00,42.2,34.2,30.29,NW,320,0.0,-999.0,73,0.00,,,0.01,11,Wunderground v.1.15,2013-03-04 01:14:00,
2013-03-03 17:16:00,42.1,34.4,30.29,NW,320,0.0,-999.0,74,0.00,,,0.01,11,Wunderground v.1.15,2013-03-04 01:16:00,
2013-03-03 17:17:00,42.1,34.4,30.29,NW,320,0.0,-999.0,74,0.00,,,0.01,11,Wunderground v.1.15,2013-03-04 01:17:00,
2013-03-03 17:19:00,41.9,33.9,30.29,NW,320,0.0,-999.0,73,0.00,,,0.01,11,Wunderground v.1.15,2013-03-04 01:19:00,
2013-03-03 17:20:00,41.9,33.9,30.29,NW,320,0.0,-999.0,73,0.00,,,0.01,11,Wunderground v.1.15,2013-03-04 01:20:00,
2013-03-03 17:21:00,41.8,33.4,30.29,NW,320,0.0,-999.0,72,0.00,,,0.01,7,Wunderground v.1.15,2013-03-04 01:21:00,
2013-03-03 17:22:00,41.8,33.4,30.29,NW,320,0.0,-999.0,72,0.00,,,0.01,7,Wunderground v.1.15,2013-03-04 01:22:00,
2013-03-03 17:24:00,41.8,34.1,30.29,NW,320,0.0,-999.0,74,0.00,,,0.01,7,Wunderground v.1.15,2013-03-04 01:24:00,
2013-03-03 17:25:00,41.7,33.7,30.29,NW,320,0.0,-999.0,73,0.00,,,0.01,9,Wunderground v.1.15,2013-03-04 01:25:00,
2013-03-03 17:26:00,41.7,33.7,30.29,NW,320,0.0,-999.0,73,0.00,,,0.01,9,Wunderground v.1.15,2013-03-04 01:26:00,
2013-03-03 17:27:00,41.5,33.5,30.29,NW,320,0.0,-999.0,73,0.00,,,0.01,9,Wunderground v.1.15,2013-03-04 01:27:00,
2013-03-03 17:29:00,41.5,33.5,30.29,NW,320,0.0,-999.0,73,0.00,,,0.01,11,Wunderground v.1.15,2013-03-04 01:29:00,
2013-03-03 17:31:00,41.5,33.8,30.29,NW,320,0.0,-999.0,74,0.00,,,0.01,11,Wunderground v.1.15,2013-03-04 01:31:00,
2013-03-03 17:33:00,41.5,34.2,30.29,NW,320,0.0,-999.0,75,0.00,,,0.01,11,Wunderground v.1.15,2013-03-04 01:33:00,
2013-03-03 17:34:00,41.4,34.4,30.29,NW,320,0.0,-999.0,76,0.00,,,0.01,11,Wunderground v.1.15,2013-03-04 01:34:00,
2013-03-03 17:36:00,41.4,34.4,30.29,NW,320,0.0,-999.0,76,0.00,,,0.01,11,Wunderground v.1.15,2013-03-04 01:36:00,
2013-03-03 17:37:00,41.4,34.4,30.29,NW,320,0.0,-999.0,76,0.00,,,0.01,7,Wunderground v.1.15,2013-03-04 01:37:00,
2013-03-03 17:38:00,41.4,34.4,30.29,NW,320,0.0,-999.0,76,0.00,,,0.01,7,Wunderground v.1.15,2013-03-04 01:38:00,
2013-03-03 17:40:00,41.4,34.7,30.29,NW,320,0.0,-999.0,77,0.00,,,0.01,7,Wunderground v.1.15,2013-03-04 01:40:00,
2013-03-03 17:42:00,41.4,34.7,30.29,NW,320,0.0,-999.0,77,0.00,,,0.01,0,Wunderground v.1.15,2013-03-04 01:42:00,
2013-03-03 17:43:00,41.4,34.7,30.29,NW,320,0.0,-999.0,77,0.00,,,0.01,0,Wunderground v.1.15,2013-03-04 01:43:00,
2013-03-03 17:45:00,41.2,34.5,30.29,NW,320,0.0,-999.0,77,0.00,,,0.01,0,Wunderground v.1.15,2013-03-04 01:45:00,
2013-03-03 17:47:00,41.2,34.5,30.30,NW,320,0.0,-999.0,77,0.00,,,0.01,0,Wunderground v.1.15,2013-03-04 01:47:00,
2013-03-03 17:48:00,41.2,34.9,30.30,NW,320,0.0,-999.0,78,0.00,,,0.01,0,Wunderground v.1.15,2013-03-04 01:48:00,
2013-03-03 17:50:00,41.2,34.9,30.30,NW,320,0.0,-999.0,78,0.00,,,0.01,0,Wunderground v.1.15,2013-03-04 01:50:00,
2013-03-03 17:52:00,41.2,34.9,30.30,NW,320,0.0,-999.0,78,0.00,,,0.01,0,Wunderground v.1.15,2013-03-04 01:52:00,
2013-03-03 17:53:00,41.2,34.9,30.30,NW,320,0.0,-999.0,78,0.00,,,0.01,0,Wunderground v.1.15,2013-03-04 01:53:00,
2013-03-03 17:55:00,41.1,35.1,30.30,NW,320,0.0,-999.0,79,0.00,,,0.01,0,Wunderground v.1.15,2013-03-04 01:55:00,
2013-03-03 17:57:00,41.1,34.8,30.30,NW,320,0.0,-999.0,78,0.00,,,0.01,0,Wunderground v.1.15,2013-03-04 01:57:00,
2013-03-03 17:58:00,41.1,34.4,30.30,NW,320,0.0,-999.0,77,0.00,,,0.01,0,Wunderground v.1.15,2013-03-04 01:58:00,
2013-03-03 17:59:00,40.9,34.2,30.30,NW,320,0.0,-999.0,77,0.00,,,0.01,0,Wunderground v.1.15,2013-03-04 01:59:00,
2013-03-03 18:01:00,40.8,34.1,30.30,NW,320,0.0,-999.0,77,0.00,,,0.01,0,Wunderground v.1.15,2013-03-04 02:01:00,
2013-03-03 18:02:00,40.8,34.1,30.30,NW,320,0.0,-999.0,77,0.00,,,0.01,0,Wunderground v.1.15,2013-03-04 02:02:00,
2013-03-03 18:03:00,40.7,34.0,30.30,NW,320,0.0,-999.0,77,0.00,,,0.01,0,Wunderground v.1.15,2013-03-04 02:03:00,
2013-03-03 18:04:00,40.7,34.0,30.30,NW,320,0.0,-999.0,77,0.00,,,0.01,0,Wunderground v.1.15,2013-03-04 02:04:00,
2013-03-03 18:07:00,40.5,34.2,30.30,NW,320,0.0,-999.0,78,0.00,,,0.01,0,Wunderground v.1.15,2013-03-04 02:07:00,
2013-03-03 18:09:00,40.5,34.5,30.30,NW,320,0.0,-999.0,79,0.00,,,0.01,0,Wunderground v.1.15,2013-03-04 02:09:00,
2013-03-03 18:12:00,40.2,34.2,30.30,NW,320,0.0,-999.0,79,0.00,,,0.01,0,Wunderground v.1.15,2013-03-04 02:12:00,
2013-03-03 18:14:00,40.2,33.9,30.30,NW,320,0.0,-999.0,78,0.00,,,0.01,0,Wunderground v.1.15,2013-03-04 02:14:00,
2013-03-03 18:15:00,40.1,33.8,30.30,NW,320,0.0,-999.0,78,0.00,,,0.01,0,Wunderground v.1.15,2013-03-04 02:15:00,
2013-03-03 18:17:00,39.9,33.9,30.30,NW,320,0.0,-999.0,79,0.00,,,0.01,0,Wunderground v.1.15,2013-03-04 02:17:00,
2013-03-03 18:19:00,39.8,34.1,30.30,NW,320,0.0,-999.0,80,0.00,,,0.01,0,Wunderground v.1.15,2013-03-04 02:19:00,
2013-03-03 18:20:00,39.8,34.1,30.30,NW,320,0.0,-999.0,80,0.00,,,0.01,0,Wunderground v.1.15,2013-03-04 02:20:00,
2013-03-03 18:22:00,39.7,34.3,30.30,NW,320,0.0,-999.0,81,0.00,,,0.01,0,Wunderground v.1.15,2013-03-04 02:22:00,
2013-03-03 18:24:00,39.4,33.7,30.30,NW,320,0.0,-999.0,80,0.00,,,0.01,0,Wunderground v.1.15,2013-03-04 02:24:00,
2013-03-03 18:25:00,39.4,33.7,30.30,NW,320,0.0,-999.0,80,0.00,,,0.01,0,Wunderground v.1.15,2013-03-04 02:25:00,
2013-03-03 18:27:00,39.2,33.2,30.30,NW,320,0.0,-999.0,79,0.00,,,0.01,0,Wunderground v.1.15,2013-03-04 02:27:00,
2013-03-03 18:29:00,39.1,33.5,30.30,NW,320,0.0,-999.0,80,0.00,,,0.01,0,Wunderground v.1.15,2013-03-04 02:29:00,
2013-03-03 18:31:00,38.9,33.6,30.30,NW,320,0.0,-999.0,81,0.00,,,0.01,0,Wunderground v.1.15,2013-03-04 02:31:00,
2013-03-03 18:33:00,38.8,33.5,30.30,NW,320,0.0,-999.0,81,0.00,,,0.01,0,Wunderground v.1.15,2013-03-04 02:33:00,
2013-03-03 18:35:00,38.6,33.6,30.30,NW,320,0.0,-999.0,82,0.00,,,0.01,0,Wunderground v.1.15,2013-03-04 02:35:00,
2013-03-03 18:36:00,38.5,33.5,30.30,NW,320,0.0,-999.0,82,0.00,,,0.01,0,Wunderground v.1.15,2013-03-04 02:36:00,
2013-03-03 18:38:00,38.4,33.4,30.30,NW,320,0.0,-999.0,82,0.00,,,0.01,0,Wunderground v.1.15,2013-03-04 02:38:00,
2013-03-03 18:40:00,38.2,33.2,30.30,NW,320,0.0,-999.0,82,0.00,,,0.01,0,Wunderground v.1.15,2013-03-04 02:40:00,
2013-03-03 18:41:00,38.2,33.2,30.30,NW,320,0.0,-999.0,82,0.00,,,0.01,0,Wunderground v.1.15,2013-03-04 02:41:00,
2013-03-03 18:44:00,38.1,33.4,30.30,NW,320,0.0,-999.0,83,0.00,,,0.01,0,Wunderground v.1.15,2013-03-04 02:44:00,
2013-03-03 18:45:00,37.9,33.2,30.30,NW,320,0.0,-999.0,83,0.00,,,0.01,0,Wunderground v.1.15,2013-03-04 02:45:00,
2013-03-03 18:46:00,37.9,33.2,30.30,NW,320,0.0,-999.0,83,0.00,,,0.01,0,Wunderground v.1.15,2013-03-04 02:46:00,
2013-03-03 18:49:00,37.8,33.1,30.30,NW,320,0.0,-999.0,83,0.00,,,0.01,0,Wunderground v.1.15,2013-03-04 02:49:00,
2013-03-03 18:51:00,37.8,33.1,30.30,NW,320,0.0,-999.0,83,0.00,,,0.01,0,Wunderground v.1.15,2013-03-04 02:51:00,
2013-03-03 18:54:00,37.6,33.2,30.30,NW,320,0.0,-999.0,84,0.00,,,0.01,0,Wunderground v.1.15,2013-03-04 02:54:00,
2013-03-03 18:56:00,37.6,33.2,30.30,NW,320,0.0,-999.0,84,0.00,,,0.01,0,Wunderground v.1.15,2013-03-04 02:56:00,
2013-03-03 18:59:00,37.4,33.3,30.30,NW,320,0.0,-999.0,85,0.00,,,0.01,0,Wunderground v.1.15,2013-03-04 02:59:00,
2013-03-03 19:01:00,37.2,32.8,30.31,NW,320,0.0,-999.0,84,0.00,,,0.01,0,Wunderground v.1.15,2013-03-04 03:01:00,
2013-03-03 19:04:00,37.1,33.0,30.31,NW,320,0.0,-999.0,85,0.00,,,0.01,0,Wunderground v.1.15,2013-03-04 03:04:00,
2013-03-03 19:06:00,36.9,32.8,30.31,NW,320,0.0,-999.0,85,0.00,,,0.01,0,Wunderground v.1.15,2013-03-04 03:06:00,
2013-03-03 19:07:00,36.9,32.8,30.31,NW,320,0.0,-999.0,85,0.00,,,0.01,0,Wunderground v.1.15,2013-03-04 03:07:00,
2013-03-03 19:10:00,36.8,33.0,30.31,NW,320,0.0,-999.0,86,0.00,,,0.01,0,Wunderground v.1.15,2013-03-04 03:10:00,
2013-03-03 19:11:00,36.6,32.8,30.31,NW,320,0.0,-999.0,86,0.00,,,0.01,0,Wunderground v.1.15,2013-03-04 03:11:00,
2013-03-03 19:12:00,36.6,32.8,30.31,NW,320,0.0,-999.0,86,0.00,,,0.01,0,Wunderground v.1.15,2013-03-04 03:12:00,
2013-03-03 19:15:00,36.5,33.0,30.31,NW,320,0.0,-999.0,87,0.00,,,0.01,0,Wunderground v.1.15,2013-03-04 03:15:00,
2013-03-03 19:17:00,36.5,33.0,30.31,NW,320,0.0,-999.0,87,0.00,,,0.01,0,Wunderground v.1.15,2013-03-04 03:17:00,
2013-03-03 19:18:00,36.4,32.9,30.31,NW,320,0.0,-999.0,87,0.00,,,0.01,0,Wunderground v.1.15,2013-03-04 03:18:00,
2013-03-03 19:20:00,36.4,32.9,30.31,NW,320,0.0,-999.0,87,0.00,,,0.01,0,Wunderground v.1.15,2013-03-04 03:20:00,
2013-03-03 19:22:00,36.2,32.7,30.31,NW,320,0.0,-999.0,87,0.00,,,0.01,0,Wunderground v.1.15,2013-03-04 03:22:00,
2013-03-03 19:23:00,36.2,33.0,30.31,NW,320,0.0,-999.0,88,0.00,,,0.01,0,Wunderground v.1.15,2013-03-04 03:23:00,
2013-03-03 19:24:00,36.1,32.9,30.31,NW,320,0.0,-999.0,88,0.00,,,0.01,0,Wunderground v.1.15,2013-03-04 03:24:00,
2013-03-03 19:25:00,36.1,32.9,30.31,NW,320,0.0,-999.0,88,0.00,,,0.01,0,Wunderground v.1.15,2013-03-04 03:25:00,
2013-03-03 19:27:00,36.1,32.9,30.31,NW,320,0.0,-999.0,88,0.00,,,0.01,0,Wunderground v.1.15,2013-03-04 03:27:00,
2013-03-03 19:29:00,35.9,32.7,30.31,NW,320,0.0,-999.0,88,0.00,,,0.01,0,Wunderground v.1.15,2013-03-04 03:29:00,
2013-03-03 19:30:00,35.9,32.7,30.31,NW,320,0.0,-999.0,88,0.00,,,0.01,0,Wunderground v.1.15,2013-03-04 03:30:00,
2013-03-03 19:32:00,35.9,32.7,30.31,NW,320,0.0,-999.0,88,0.00,,,0.01,0,Wunderground v.1.15,2013-03-04 03:32:00,
2013-03-03 19:34:00,35.8,32.6,30.31,NW,320,0.0,-999.0,88,0.00,,,0.01,0,Wunderground v.1.15,2013-03-04 03:34:00,
2013-03-03 19:35:00,35.8,32.6,30.31,NW,320,0.0,-999.0,88,0.00,,,0.01,0,Wunderground v.1.15,2013-03-04 03:35:00,
2013-03-03 19:36:00,35.8,32.6,30.31,NW,320,0.0,-999.0,88,0.00,,,0.01,0,Wunderground v.1.15,2013-03-04 03:36:00,
2013-03-03 19:37:00,35.8,32.6,30.31,NW,320,0.0,-999.0,88,0.00,,,0.01,0,Wunderground v.1.15,2013-03-04 03:37:00,
2013-03-03 19:39:00,35.6,32.4,30.31,NW,320,0.0,-999.0,88,0.00,,,0.01,0,Wunderground v.1.15,2013-03-04 03:39:00,
2013-03-03 19:40:00,35.6,32.4,30.31,NW,320,0.0,-999.0,88,0.00,,,0.01,0,Wunderground v.1.15,2013-03-04 03:40:00,
2013-03-03 19:41:00,35.6,32.4,30.31,NW,320,0.0,-999.0,88,0.00,,,0.01,0,Wunderground v.1.15,2013-03-04 03:41:00,
2013-03-03 19:44:00,35.5,32.6,30.31,NW,320,0.0,-999.0,89,0.00,,,0.01,0,Wunderground v.1.15,2013-03-04 03:44:00,
2013-03-03 19:45:00,35.3,32.4,30.31,NW,320,0.0,-999.0,89,0.00,,,0.01,0,Wunderground v.1.15,2013-03-04 03:45:00,
2013-03-03 19:46:00,35.3,32.4,30.31,NW,320,0.0,-999.0,89,0.00,,,0.01,0,Wunderground v.1.15,2013-03-04 03:46:00,
2013-03-03 19:49:00,35.2,32.3,30.31,NW,320,0.0,-999.0,89,0.00,,,0.01,0,Wunderground v.1.15,2013-03-04 03:49:00,
2013-03-03 19:50:00,35.2,32.3,30.31,NW,320,0.0,-999.0,89,0.00,,,0.01,0,Wunderground v.1.15,2013-03-04 03:50:00,
2013-03-03 19:51:00,35.2,32.3,30.31,NW,320,0.0,-999.0,89,0.00,,,0.01,0,Wunderground v.1.15,2013-03-04 03:51:00,
2013-03-03 19:55:00,34.9,32.0,30.31,NW,320,0.0,-999.0,89,0.00,,,0.01,0,Wunderground v.1.15,2013-03-04 03:55:00,
2013-03-03 19:56:00,34.9,32.0,30.31,NW,320,0.0,-999.0,89,0.00,,,0.01,0,Wunderground v.1.15,2013-03-04 03:56:00,
2013-03-03 20:00:00,34.7,32.1,30.31,NW,320,0.0,-999.0,90,0.00,,,0.01,0,Wunderground v.1.15,2013-03-04 04:00:00,
2013-03-03 20:01:00,34.7,32.1,30.31,NW,320,0.0,-999.0,90,0.00,,,0.01,0,Wunderground v.1.15,2013-03-04 04:01:00,
2013-03-03 20:02:00,34.7,32.1,30.31,NW,320,0.0,-999.0,90,0.00,,,0.01,0,Wunderground v.1.15,2013-03-04 04:02:00,
2013-03-03 20:06:00,34.6,32.0,30.31,NW,320,0.0,-999.0,90,0.00,,,0.01,0,Wunderground v.1.15,2013-03-04 04:06:00,
2013-03-03 21:12:00,34.0,31.6,30.32,NW,320,0.0,-999.0,91,0.00,,,0.01,0,Wunderground v.1.15,2013-03-04 05:12:00,
2013-03-03 21:13:00,34.0,31.6,30.32,NW,320,0.0,-999.0,91,0.00,,,0.01,0,Wunderground v.1.15,2013-03-04 05:13:00,
2013-03-03 21:17:00,34.0,31.6,30.32,NW,320,0.0,-999.0,91,0.00,,,0.01,0,Wunderground v.1.15,2013-03-04 05:17:00,
2013-03-03 21:18:00,34.0,31.6,30.32,NW,320,0.0,-999.0,91,0.00,,,0.01,0,Wunderground v.1.15,2013-03-04 05:18:00,
2013-03-03 21:22:00,33.8,31.5,30.32,NW,320,0.0,-999.0,91,0.00,,,0.01,0,Wunderground v.1.15,2013-03-04 05:22:00,
2013-03-03 21:23:00,34.0,31.6,30.32,NW,320,0.0,-999.0,91,0.00,,,0.01,0,Wunderground v.1.15,2013-03-04 05:23:00,
2013-03-03 21:24:00,33.8,31.5,30.32,NW,320,0.0,-999.0,91,0.00,,,0.01,0,Wunderground v.1.15,2013-03-04 05:24:00,
2013-03-03 21:27:00,33.8,31.5,30.32,NW,320,0.0,-999.0,91,0.00,,,0.01,0,Wunderground v.1.15,2013-03-04 05:27:00,
2013-03-03 21:28:00,33.8,31.5,30.32,NW,320,0.0,-999.0,91,0.00,,,0.01,0,Wunderground v.1.15,2013-03-04 05:28:00,
2013-03-03 21:29:00,33.8,31.5,30.32,NW,320,0.0,-999.0,91,0.00,,,0.01,0,Wunderground v.1.15,2013-03-04 05:29:00,
2013-03-03 21:32:00,33.8,31.5,30.32,NW,320,0.0,-999.0,91,0.00,,,0.01,0,Wunderground v.1.15,2013-03-04 05:32:00,
2013-03-03 21:33:00,33.8,31.5,30.32,NW,320,0.0,-999.0,91,0.00,,,0.01,0,Wunderground v.1.15,2013-03-04 05:33:00,
2013-03-03 21:35:00,33.8,31.5,30.32,NW,320,0.0,-999.0,91,0.00,,,0.01,0,Wunderground v.1.15,2013-03-04 05:35:00,
2013-03-03 21:38:00,33.8,31.5,30.32,NW,320,0.0,-999.0,91,0.00,,,0.01,0,Wunderground v.1.15,2013-03-04 05:38:00,
2013-03-03 21:39:00,33.8,31.5,30.32,NW,320,0.0,-999.0,91,0.00,,,0.01,0,Wunderground v.1.15,2013-03-04 05:39:00,
2013-03-03 21:40:00,33.7,31.4,30.32,NW,320,0.0,-999.0,91,0.00,,,0.01,0,Wunderground v.1.15,2013-03-04 05:40:00,
2013-03-03 21:43:00,33.7,31.4,30.32,NW,320,0.0,-999.0,91,0.00,,,0.01,0,Wunderground v.1.15,2013-03-04 05:43:00,
2013-03-03 21:44:00,33.7,31.4,30.32,NW,320,0.0,-999.0,91,0.00,,,0.01,0,Wunderground v.1.15,2013-03-04 05:44:00,
2013-03-03 21:46:00,33.7,31.4,30.32,NW,320,0.0,-999.0,91,0.00,,,0.01,0,Wunderground v.1.15,2013-03-04 05:46:00,
2013-03-03 21:48:00,33.7,31.4,30.32,NW,320,0.0,-999.0,91,0.00,,,0.01,0,Wunderground v.1.15,2013-03-04 05:48:00,
2013-03-03 21:49:00,33.7,31.4,30.32,NW,320,0.0,-999.0,91,0.00,,,0.01,0,Wunderground v.1.15,2013-03-04 05:49:00,
2013-03-03 21:51:00,33.7,31.4,30.32,NW,320,0.0,-999.0,91,0.00,,,0.01,0,Wunderground v.1.15,2013-03-04 05:51:00,
2013-03-03 21:53:00,33.7,31.4,30.32,NW,320,0.0,-999.0,91,0.00,,,0.01,0,Wunderground v.1.15,2013-03-04 05:53:00,
2013-03-03 21:54:00,33.7,31.4,30.32,NW,320,0.0,-999.0,91,0.00,,,0.01,0,Wunderground v.1.15,2013-03-04 05:54:00,
2013-03-03 21:56:00,33.7,31.4,30.32,NW,320,0.0,-999.0,91,0.00,,,0.01,0,Wunderground v.1.15,2013-03-04 05:56:00,
2013-03-03 21:58:00,33.5,31.2,30.32,NW,320,0.0,-999.0,91,0.00,,,0.01,0,Wunderground v.1.15,2013-03-04 05:58:00,
2013-03-03 21:59:00,33.5,31.2,30.32,NW,320,0.0,-999.0,91,0.00,,,0.01,0,Wunderground v.1.15,2013-03-04 05:59:00,
2013-03-03 22:00:00,33.5,31.2,30.32,NW,320,0.0,-999.0,91,0.00,,,0.01,0,Wunderground v.1.15,2013-03-04 06:00:00,
2013-03-03 22:01:00,33.5,31.2,30.32,NW,320,0.0,-999.0,91,0.00,,,0.01,0,Wunderground v.1.15,2013-03-04 06:01:00,
2013-03-03 22:04:00,33.5,31.2,30.32,NW,320,0.0,-999.0,91,0.00,,,0.01,0,Wunderground v.1.15,2013-03-04 06:04:00,
2013-03-03 22:05:00,33.5,31.2,30.32,NW,320,0.0,-999.0,91,0.00,,,0.01,0,Wunderground v.1.15,2013-03-04 06:05:00,
2013-03-03 22:06:00,33.5,31.2,30.32,NW,320,0.0,-999.0,91,0.00,,,0.01,0,Wunderground v.1.15,2013-03-04 06:06:00,
2013-03-03 22:09:00,33.5,31.2,30.32,NW,320,0.0,-999.0,91,0.00,,,0.01,0,Wunderground v.1.15,2013-03-04 06:09:00,
2013-03-03 22:10:00,33.4,31.1,30.32,NW,320,0.0,-999.0,91,0.00,,,0.01,0,Wunderground v.1.15,2013-03-04 06:10:00,
2013-03-03 22:12:00,33.4,31.1,30.32,NW,320,0.0,-999.0,91,0.00,,,0.01,0,Wunderground v.1.15,2013-03-04 06:12:00,
2013-03-03 22:14:00,33.4,31.1,30.32,NW,320,0.0,-999.0,91,0.00,,,0.01,0,Wunderground v.1.15,2013-03-04 06:14:00,
2013-03-03 22:16:00,33.4,31.1,30.32,NW,320,0.0,-999.0,91,0.00,,,0.01,0,Wunderground v.1.15,2013-03-04 06:16:00,
2013-03-03 22:17:00,33.4,31.1,30.32,NW,320,0.0,-999.0,91,0.00,,,0.01,0,Wunderground v.1.15,2013-03-04 06:17:00,
2013-03-03 22:19:00,33.4,31.1,30.32,NW,320,0.0,-999.0,91,0.00,,,0.01,0,Wunderground v.1.15,2013-03-04 06:19:00,
2013-03-03 22:21:00,33.4,31.1,30.32,NW,320,0.0,-999.0,91,0.00,,,0.01,0,Wunderground v.1.15,2013-03-04 06:21:00,
2013-03-03 22:23:00,33.3,31.0,30.32,NW,320,0.0,-999.0,91,0.00,,,0.01,0,Wunderground v.1.15,2013-03-04 06:23:00,
2013-03-03 22:24:00,33.3,31.0,30.32,NW,320,0.0,-999.0,91,0.00,,,0.01,0,Wunderground v.1.15,2013-03-04 06:24:00,
2013-03-03 22:26:00,33.3,31.0,30.32,NW,320,0.0,-999.0,91,0.00,,,0.01,0,Wunderground v.1.15,2013-03-04 06:26:00,
2013-03-03 22:28:00,33.3,31.0,30.32,NW,320,0.0,-999.0,91,0.00,,,0.01,0,Wunderground v.1.15,2013-03-04 06:28:00,
2013-03-03 22:29:00,33.3,31.0,30.32,NW,320,0.0,-999.0,91,0.00,,,0.01,0,Wunderground v.1.15,2013-03-04 06:29:00,
2013-03-03 22:31:00,33.3,31.0,30.32,NW,320,0.0,-999.0,91,0.00,,,0.01,0,Wunderground v.1.15,2013-03-04 06:31:00,
2013-03-03 22:34:00,33.3,31.0,30.32,NW,320,0.0,-999.0,91,0.00,,,0.01,0,Wunderground v.1.15,2013-03-04 06:34:00,
2013-03-03 22:36:00,33.1,30.8,30.32,NW,320,0.0,-999.0,91,0.00,,,0.01,0,Wunderground v.1.15,2013-03-04 06:36:00,
2013-03-03 22:39:00,33.1,30.8,30.32,NW,320,0.0,-999.0,91,0.00,,,0.01,0,Wunderground v.1.15,2013-03-04 06:39:00,
2013-03-03 22:41:00,33.1,30.8,30.32,NW,320,0.0,-999.0,91,0.00,,,0.01,0,Wunderground v.1.15,2013-03-04 06:41:00,
2013-03-03 22:44:00,33.1,30.8,30.32,NW,320,0.0,-999.0,91,0.00,,,0.01,0,Wunderground v.1.15,2013-03-04 06:44:00,
2013-03-03 22:45:00,33.1,30.8,30.32,NW,320,0.0,-999.0,91,0.00,,,0.01,0,Wunderground v.1.15,2013-03-04 06:45:00,
2013-03-03 22:46:00,33.1,30.8,30.33,NW,320,0.0,-999.0,91,0.00,,,0.01,0,Wunderground v.1.15,2013-03-04 06:46:00,
2013-03-03 22:47:00,33.1,30.8,30.33,NW,320,0.0,-999.0,91,0.00,,,0.01,0,Wunderground v.1.15,2013-03-04 06:47:00,
2013-03-03 22:49:00,33.1,30.8,30.33,NW,320,0.0,-999.0,91,0.00,,,0.01,0,Wunderground v.1.15,2013-03-04 06:49:00,
2013-03-03 22:50:00,33.1,30.8,30.33,NW,320,0.0,-999.0,91,0.00,,,0.01,0,Wunderground v.1.15,2013-03-04 06:50:00,
2013-03-03 22:51:00,33.0,30.7,30.33,NW,320,0.0,-999.0,91,0.00,,,0.01,0,Wunderground v.1.15,2013-03-04 06:51:00,
2013-03-03 22:52:00,33.0,30.7,30.33,NW,320,0.0,-999.0,91,0.00,,,0.01,0,Wunderground v.1.15,2013-03-04 06:52:00,
2013-03-03 22:54:00,33.0,30.7,30.33,NW,320,0.0,-999.0,91,0.00,,,0.01,0,Wunderground v.1.15,2013-03-04 06:54:00,
2013-03-03 22:55:00,33.0,30.7,30.33,NW,320,0.0,-999.0,91,0.00,,,0.01,0,Wunderground v.1.15,2013-03-04 06:55:00,
2013-03-03 22:56:00,33.0,30.7,30.33,NW,320,0.0,-999.0,91,0.00,,,0.01,0,Wunderground v.1.15,2013-03-04 06:56:00,
2013-03-03 22:57:00,33.0,30.7,30.33,NW,320,0.0,-999.0,91,0.00,,,0.01,0,Wunderground v.1.15,2013-03-04 06:57:00,
2013-03-03 23:00:00,33.0,30.7,30.33,NW,320,0.0,-999.0,91,0.00,,,0.01,0,Wunderground v.1.15,2013-03-04 07:00:00,
2013-03-03 23:01:00,33.0,30.7,30.33,NW,320,0.0,-999.0,91,0.00,,,0.01,0,Wunderground v.1.15,2013-03-04 07:01:00,
2013-03-03 23:02:00,33.0,30.7,30.33,NW,320,0.0,-999.0,91,0.00,,,0.01,0,Wunderground v.1.15,2013-03-04 07:02:00,
2013-03-03 23:05:00,33.0,30.7,30.33,NW,320,0.0,-999.0,91,0.00,,,0.01,0,Wunderground v.1.15,2013-03-04 07:05:00,
2013-03-03 23:06:00,33.0,30.7,30.33,NW,320,0.0,-999.0,91,0.00,,,0.01,0,Wunderground v.1.15,2013-03-04 07:06:00,
2013-03-03 23:07:00,33.1,30.8,30.33,NW,320,0.0,-999.0,91,0.00,,,0.01,0,Wunderground v.1.15,2013-03-04 07:07:00,
2013-03-03 23:11:00,33.1,30.8,30.33,NW,320,0.0,-999.0,91,0.00,,,0.01,0,Wunderground v.1.15,2013-03-04 07:11:00,
2013-03-03 23:12:00,33.1,30.8,30.33,NW,320,0.0,-999.0,91,0.00,,,0.01,0,Wunderground v.1.15,2013-03-04 07:12:00,
2013-03-03 23:16:00,33.1,30.8,30.33,NW,320,0.0,-999.0,91,0.00,,,0.01,0,Wunderground v.1.15,2013-03-04 07:16:00,
2013-03-03 23:17:00,33.1,30.8,30.33,NW,320,0.0,-999.0,91,0.00,,,0.01,0,Wunderground v.1.15,2013-03-04 07:17:00,
2013-03-03 23:18:00,33.1,30.8,30.33,NW,320,0.0,-999.0,91,0.00,,,0.01,0,Wunderground v.1.15,2013-03-04 07:18:00,
2013-03-03 23:21:00,33.1,30.8,30.33,NW,320,0.0,-999.0,91,0.00,,,0.01,0,Wunderground v.1.15,2013-03-04 07:21:00,
2013-03-03 23:22:00,33.1,30.8,30.33,NW,320,0.0,-999.0,91,0.00,,,0.01,0,Wunderground v.1.15,2013-03-04 07:22:00,
2013-03-03 23:23:00,33.1,30.8,30.33,NW,320,0.0,-999.0,91,0.00,,,0.01,0,Wunderground v.1.15,2013-03-04 07:23:00,
2013-03-03 23:27:00,33.1,30.8,30.33,NW,320,0.0,-999.0,91,0.00,,,0.01,0,Wunderground v.1.15,2013-03-04 07:27:00,
2013-03-03 23:28:00,33.1,30.8,30.33,NW,320,0.0,-999.0,91,0.00,,,0.01,0,Wunderground v.1.15,2013-03-04 07:28:00,
2013-03-03 23:32:00,33.1,30.8,30.33,NW,320,0.0,-999.0,91,0.00,,,0.01,0,Wunderground v.1.15,2013-03-04 07:32:00,
2013-03-03 23:33:00,33.1,30.8,30.33,NW,320,0.0,-999.0,91,0.00,,,0.01,0,Wunderground v.1.15,2013-03-04 07:33:00,
2013-03-03 23:37:00,33.1,30.8,30.33,NW,320,0.0,-999.0,91,0.00,,,0.01,0,Wunderground v.1.15,2013-03-04 07:37:00,
2013-03-03 23:38:00,33.0,30.7,30.33,NW,320,0.0,-999.0,91,0.00,,,0.01,0,Wunderground v.1.15,2013-03-04 07:38:00,
2013-03-03 23:42:00,33.0,30.7,30.33,NW,320,0.0,-999.0,91,0.00,,,0.01,0,Wunderground v.1.15,2013-03-04 07:42:00,
2013-03-03 23:43:00,33.0,30.7,30.33,NW,320,0.0,-999.0,91,0.00,,,0.01,0,Wunderground v.1.15,2013-03-04 07:43:00,
2013-03-03 23:44:00,33.0,30.7,30.33,NW,320,0.0,-999.0,91,0.00,,,0.01,0,Wunderground v.1.15,2013-03-04 07:44:00,
2013-03-03 23:47:00,33.0,30.7,30.33,NW,320,0.0,-999.0,91,0.00,,,0.01,0,Wunderground v.1.15,2013-03-04 07:47:00,
2013-03-03 23:48:00,33.0,30.7,30.33,NW,320,0.0,-999.0,91,0.00,,,0.01,0,Wunderground v.1.15,2013-03-04 07:48:00,
2013-03-03 23:49:00,33.0,30.7,30.33,NW,320,0.0,-999.0,91,0.00,,,0.01,0,Wunderground v.1.15,2013-03-04 07:49:00,
2013-03-03 23:52:00,32.8,30.5,30.33,NW,320,0.0,-999.0,91,0.00,,,0.01,0,Wunderground v.1.15,2013-03-04 07:52:00,
2013-03-03 23:53:00,32.8,30.5,30.33,NW,320,0.0,-999.0,91,0.00,,,0.01,0,Wunderground v.1.15,2013-03-04 07:53:00,
2013-03-03 23:54:00,32.8,30.5,30.33,NW,320,0.0,-999.0,91,0.00,,,0.01,0,Wunderground v.1.15,2013-03-04 07:54:00,
2013-03-03 23:58:00,32.8,30.5,30.33,NW,320,0.0,-999.0,91,0.00,,,0.01,0,Wunderground v.1.15,2013-03-04 07:58:00,
2013-03-03 23:59:00,32.8,30.5,30.33,NW,320,0.0,-999.0,91,0.00,,,0.01,0,Wunderground v.1.15,2013-03-04 07:59:00,